                ,  0.300,  0.400,  0.500,  0.600,  0.700,  0.800,  0.900,  1.000,  1.100,  1.200,  1.300,  1.400,  1.500,  1.600,  1.700,  1.800,  1.900,  2.000,  2.100,  2.200,  2.300,  2.400,  2.500,  2.600,  2.700,  2.800,  2.900,  3.000,  3.100,  3.200,  3.300,  3.400,  3.500,  3.600,  3.700,  3.800,  3.900,  4.000,  4.100,  4.200,  4.300,  4.400,  4.500,  4.600,  4.700,  4.800,  4.900,  5.000,  5.100,  5.200,  5.300,  5.400,  5.500,  5.600,  5.700,  5.800,  5.900,  6.000
2000/11/27 00:00,  999.0,  999.0,    1.5,  999.0,    0.0,   -0.0,    0.1,  999.0,  999.0,    0.0,    0.2,    0.1,    0.3,    0.0,    0.0,    0.1,  999.0,   -0.1,  999.0,  999.0,  999.0,  999.0,  999.0,  999.0,  999.0,  999.0,  999.0,  999.0,  999.0,  999.0,  999.0,  999.0,  999.0,  999.0,  999.0,  999.0,  999.0,  999.0,  999.0,  999.0,  999.0,  999.0,  999.0,  999.0,  999.0,  999.0,  999.0,  999.0,  999.0,  999.0,  999.0,  999.0,  999.0,  999.0,  999.0,  999.0,  999.0,  999.0
2000/11/27 00:10,    0.2,    0.4,   -0.1,   -0.2,   -0.1,   -0.0,    0.1,    0.0,    0.3,    0.2,    0.1,    0.1,   -0.3,    0.2,    0.3,    0.0,  999.0,    0.0,  999.0,  999.0,  999.0,  999.0,  999.0,  999.0,  999.0,  999.0,  999.0,  999.0,  999.0,  999.0,  999.0,  999.0,  999.0,  999.0,  999.0,  999.0,  999.0,  999.0,  999.0,  999.0,  999.0,  999.0,  999.0,  999.0,  999.0,  999.0,  999.0,  999.0,  999.0,  999.0,  999.0,  999.0,  999.0,  999.0,  999.0,  999.0,  999.0,  999.0
2000/11/27 00:20,    1.4,    1.4,   -0.3,   -0.4,   -0.1,   -0.1,   -0.0,   -0.3,   -0.7,    0.1,    0.1,   -0.0,    0.3,  999.0,    0.1,    0.1,    0.0,   -0.0,  999.0,   -0.0,  999.0,    0.3,    0.0,  999.0,  999.0,  999.0,  999.0,  999.0,  999.0,  999.0,  999.0,  999.0,  999.0,  999.0,  999.0,  999.0,  999.0,  999.0,  999.0,  999.0,  999.0,  999.0,  999.0,  999.0,  999.0,  999.0,  999.0,  999.0,  999.0,  999.0,  999.0,  999.0,  999.0,  999.0,  999.0,  999.0,  999.0,  999.0
2000/11/27 00:30,  999.0,    0.5,    0.1,    0.3,    0.0,    0.1,    0.2,    0.2,    0.1,    0.1,    0.1,    0.2,    0.1,    0.1,    0.1,    0.0,   -0.0,    0.2,    0.0,  999.0,   -0.0,  999.0,  999.0,  999.0,  999.0,  999.0,  999.0,  999.0,  999.0,  999.0,  999.0,  999.0,  999.0,  999.0,  999.0,  999.0,  999.0,  999.0,  999.0,  999.0,  999.0,  999.0,  999.0,  999.0,  999.0,  999.0,  999.0,  999.0,  999.0,  999.0,  999.0,  999.0,  999.0,  999.0,  999.0,  999.0,  999.0,  999.0
2000/11/27 00:40,  999.0,    0.3,    0.5,   -0.0,   -0.2,    0.0,   -0.2,    0.2,    0.2,    0.1,    0.0,    0.1,    0.0,  999.0,    0.2,    0.3,   -0.1,   -0.1,  999.0,  999.0,    0.3,  999.0,   -0.1,  999.0,  999.0,  999.0,  999.0,  999.0,  999.0,  999.0,  999.0,  999.0,  999.0,  999.0,  999.0,  999.0,  999.0,  999.0,  999.0,  999.0,  999.0,  999.0,  999.0,  999.0,  999.0,  999.0,  999.0,  999.0,  999.0,  999.0,  999.0,  999.0,  999.0,  999.0,  999.0,  999.0,  999.0,  999.0
2000/11/27 00:50,   -0.6,  999.0,   -0.1,   -0.2,   -0.2,   -0.1,    0.1,   -0.1,    0.2,    0.0,   -0.1,    0.1,    0.3,  999.0,    0.1,    0.2,   -0.1,    0.1,  999.0,  999.0,  999.0,  999.0,  999.0,  999.0,  999.0,  999.0,  999.0,  999.0,  999.0,  999.0,  999.0,  999.0,  999.0,  999.0,  999.0,  999.0,  999.0,  999.0,  999.0,  999.0,  999.0,  999.0,  999.0,  999.0,  999.0,  999.0,  999.0,  999.0,  999.0,  999.0,  999.0,  999.0,  999.0,  999.0,  999.0,  999.0,  999.0,  999.0
2000/11/27 01:00,    0.4,   -0.2,    0.1,    0.0,   -0.0,   -0.1,  999.0,   -0.1,  999.0,    0.1,   -0.1,    0.0,    0.1,    0.3,    0.1,   -0.1,  999.0,    0.0,    0.3,    0.2,  999.0,  999.0,  999.0,  999.0,  999.0,  999.0,  999.0,  999.0,  999.0,  999.0,  999.0,  999.0,  999.0,  999.0,  999.0,   -5.5,   -5.6,   -5.6,   -5.5,   -5.6,  999.0,  999.0,  999.0,  999.0,   -5.3,  999.0,  999.0,  999.0,   -5.5,   -5.5,  999.0,   -5.4,   -5.5,   -5.5,  999.0,   -5.5,  999.0,  999.0
2000/11/27 01:10,  999.0,  999.0,    0.0,   -0.3,   -0.9,   -0.1,  999.0,    0.2,    0.1,    0.1,    0.0,    0.0,    0.0,    0.1,    0.1,    0.0,    0.4,    0.0,    0.3,  999.0,  999.0,  999.0,  999.0,  999.0,  999.0,  999.0,  999.0,  999.0,  999.0,  999.0,  999.0,  999.0,  999.0,  999.0,  999.0,   -5.5,  999.0,   -5.5,  999.0,   -5.5,  999.0,   -5.4,  999.0,  999.0,   -5.5,    5.4,  999.0,   -5.5,   -5.5,   -5.4,    5.2,   -5.5,   -5.6,  999.0,  999.0,   -5.5,   -5.4,  999.0
2000/11/27 01:20,   -0.7,  999.0,    0.5,    0.1,    0.2,   -0.1,   -0.0,    0.1,  999.0,    0.1,   -0.0,    0.1,    0.1,    0.2,    0.1,    0.1,    0.2,    0.1,   -0.0,  999.0,    0.2,  999.0,  999.0,  999.0,  999.0,  999.0,  999.0,  999.0,  999.0,  999.0,  999.0,  999.0,  999.0,   -5.6,   -5.5,   -5.6,   -5.5,   -5.5,   -5.5,  999.0,   -5.5,   -5.5,   -5.4,  999.0,   -5.5,   -5.5,   -5.6,   -5.6,   -5.5,   -5.5,   -5.6,   -5.7,   -5.5,   -5.5,   -5.6,  999.0,   -5.6,   -5.4
2000/11/27 01:30,   -0.6,   -1.0,    0.3,   -0.2,   -0.0,    0.2,   -0.2,   -0.2,   -0.6,   -0.1,    0.1,    0.1,   -0.0,   -0.0,    0.1,   -0.0,    0.3,    0.1,  999.0,  999.0,  999.0,  999.0,   -0.7,    0.1,   -0.1,  999.0,   -0.2,  999.0,  999.0,  999.0,  999.0,  999.0,  999.0,  999.0,  999.0,  999.0,   -5.4,  999.0,  999.0,   -5.4,   -5.5,  999.0,  999.0,  999.0,  999.0,  999.0,  999.0,   -5.6,  999.0,  999.0,  999.0,   -5.5,  999.0,   -5.5,  999.0,  999.0,  999.0,   -5.6
2000/11/27 01:40,  999.0,  999.0,   -1.1,    0.2,    0.0,    0.2,   -0.3,   -0.1,  999.0,    0.1,    0.1,    0.1,    0.0,    0.2,    0.1,   -0.0,    0.2,    0.3,  999.0,   -0.0,  999.0,  999.0,  999.0,  999.0,    0.1,  999.0,  999.0,  999.0,    0.2,  999.0,  999.0,  999.0,  999.0,  999.0,  999.0,  999.0,  999.0,  999.0,  999.0,  999.0,  999.0,  999.0,  999.0,  999.0,  999.0,  999.0,  999.0,  999.0,   -5.4,  999.0,   -5.4,  999.0,  999.0,  999.0,   -5.5,   -5.4,   -5.5,  999.0
2000/11/27 01:50,  999.0,  999.0,  999.0,   -0.2,    0.1,    0.0,   -0.1,    0.1,    0.0,    0.0,   -0.0,    0.0,   -0.1,   -0.0,   -0.0,   -0.0,  999.0,   -0.0,  999.0,  999.0,  999.0,  999.0,    0.1,  999.0,  999.0,  999.0,  999.0,  999.0,  999.0,  999.0,  999.0,  999.0,  999.0,  999.0,   -5.5,   -5.4,   -5.5,   -5.5,  999.0,   -5.5,  999.0,   -5.5,   -5.5,   -5.5,  999.0,   -5.4,   -5.4,   -5.5,  999.0,   -5.5,   -5.5,   -5.5,   -5.5,   -5.5,   -5.5,   -5.5,   -5.5,   -5.5
2000/11/27 02:00,   -0.8,  999.0,    0.1,   -0.4,   -0.7,   -0.0,   -0.1,   -0.1,    0.3,    0.1,   -0.1,    0.1,    0.1,    0.1,    0.1,    0.1,  999.0,  999.0,  999.0,  999.0,  999.0,   -0.0,    0.1,   -0.2,  999.0,  999.0,  999.0,  999.0,  999.0,  999.0,  999.0,  999.0,  999.0,  999.0,  999.0,  999.0,   -5.5,  999.0,  999.0,   -5.6,   -5.5,   -5.5,   -5.5,   -5.4,   -5.5,   -5.5,   -5.4,   -5.6,   -5.6,   -5.5,   -5.5,  999.0,   -5.5,   -5.5,   -5.5,   -5.5,   -5.4,   -5.5
2000/11/27 02:10,    0.3,   -1.2,   -0.1,   -0.3,    1.5,   -0.1,   -0.0,   -0.3,    0.5,   -0.0,   -0.1,    0.0,   -0.0,    0.1,    0.1,    0.1,   -0.1,    0.0,  999.0,  999.0,  999.0,    0.1,  999.0,  999.0,  999.0,  999.0,  999.0,  999.0,  999.0,  999.0,  999.0,  999.0,  999.0,  999.0,  999.0,   -5.5,  999.0,  999.0,   -5.5,   -5.5,   -5.6,   -5.4,   -5.5,   -5.4,   -5.5,   -5.6,   -5.5,   -5.4,   -5.7,   -5.4,   -5.5,   -5.3,   -5.5,   -5.5,   -5.6,   -5.5,   -5.6,   -5.5
2000/11/27 02:20,   -0.3,  999.0,  999.0,   -0.2,   -0.2,   -0.1,    0.0,  999.0,  999.0,    0.1,   -0.1,   -0.0,    0.0,    0.1,    0.1,    0.0,    0.0,   -0.1,  999.0,    0.1,   -0.1,    0.0,  999.0,  999.0,  999.0,  999.0,  999.0,  999.0,  999.0,  999.0,   -5.5,  999.0,   -5.7,   -5.4,   -5.4,   -5.5,   -5.5,   -5.5,   -5.5,   -5.5,   -5.5,   -5.5,   -5.5,   -5.4,   -5.4,   -5.5,   -5.5,   -5.4,   -5.4,   -5.5,   -5.5,   -5.6,   -5.5,   -5.4,   -5.3,   -5.5,  999.0,   -5.4
2000/11/27 02:30,  999.0,  999.0,   -0.9,   -0.4,    0.7,   -0.2,   -0.2,   -0.5,   -0.2,    0.0,    0.1,    0.1,   -0.3,    0.4,    0.2,    0.1,    0.4,    0.1,  999.0,    0.0,  999.0,  999.0,  999.0,  999.0,  999.0,  999.0,  999.0,  999.0,  999.0,  999.0,  999.0,  999.0,  999.0,  999.0,  999.0,   -5.5,   -5.5,   -5.5,   -5.6,   -5.5,   -5.5,   -5.5,  999.0,   -5.5,   -5.4,   -5.4,   -5.5,   -5.4,   -5.6,   -5.5,   -5.4,   -5.5,   -5.4,   -5.5,   -5.5,   -5.5,   -5.6,   -5.4
2000/11/27 02:40,   -0.1,  999.0,    0.2,   -0.3,    0.1,    0.3,  999.0,  999.0,    0.1,   -0.0,    0.1,   -0.0,  999.0,  999.0,    0.1,    0.2,  999.0,    0.1,  999.0,    0.3,    0.3,  999.0,  999.0,  999.0,  999.0,  999.0,  999.0,  999.0,  999.0,  999.0,  999.0,   -5.5,   -5.5,   -5.4,   -5.4,   -5.4,   -5.5,   -5.5,   -5.4,   -5.5,   -5.6,   -5.4,   -5.5,   -5.6,   -5.4,  999.0,   -5.5,   -5.5,   -5.4,   -5.6,   -5.6,  999.0,   -5.5,   -5.5,   -5.7,   -5.3,  999.0,   -5.5
2000/11/27 02:50,   -0.1,  999.0,  999.0,    0.7,  999.0,  999.0,  999.0,    0.9,  999.0,    0.2,    0.4,    0.0,    0.2,    0.7,    0.1,  999.0,  999.0,    0.1,  999.0,  999.0,  999.0,  999.0,  999.0,  999.0,  999.0,  999.0,  999.0,  999.0,  999.0,  999.0,  999.0,  999.0,  999.0,  999.0,  999.0,  999.0,  999.0,  999.0,  999.0,  999.0,  999.0,  999.0,  999.0,  999.0,  999.0,  999.0,  999.0,  999.0,  999.0,  999.0,  999.0,  999.0,  999.0,  999.0,  999.0,  999.0,  999.0,  999.0
2000/11/27 03:00,    0.4,    0.1,   -0.8,    1.1,    0.9,   -0.4,    0.4,    1.0,   -0.6,    0.0,    0.7,   -0.1,    0.2,  999.0,    0.2,   -0.1,  999.0,   -0.0,  999.0,  999.0,  999.0,  999.0,  999.0,  999.0,  999.0,  999.0,  999.0,  999.0,  999.0,  999.0,  999.0,  999.0,  999.0,  999.0,  999.0,  999.0,  999.0,  999.0,  999.0,  999.0,  999.0,  999.0,  999.0,  999.0,  999.0,  999.0,  999.0,  999.0,  999.0,  999.0,  999.0,  999.0,  999.0,  999.0,  999.0,  999.0,  999.0,  999.0
2000/11/27 03:10,  999.0,   -0.0,  999.0,  999.0,    0.3,    0.3,   -0.1,    0.4,   -0.6,    0.2,   -0.3,   -0.0,   -0.3,    0.2,   -0.1,  999.0,  999.0,  999.0,  999.0,  999.0,  999.0,  999.0,  999.0,  999.0,  999.0,  999.0,  999.0,  999.0,  999.0,  999.0,  999.0,  999.0,  999.0,  999.0,  999.0,  999.0,  999.0,  999.0,  999.0,  999.0,  999.0,  999.0,  999.0,  999.0,  999.0,  999.0,  999.0,  999.0,  999.0,  999.0,  999.0,  999.0,  999.0,  999.0,  999.0,  999.0,  999.0,  999.0
2000/11/27 03:20,    0.2,    0.3,   -0.3,   -0.4,   -0.4,   -0.2,    0.6,   -0.1,    0.1,    0.4,   -0.1,   -0.2,   -0.0,    0.1,   -0.1,  999.0,  999.0,   -0.2,  999.0,  999.0,  999.0,   -0.0,  999.0,  999.0,  999.0,  999.0,  999.0,  999.0,  999.0,  999.0,  999.0,  999.0,  999.0,  999.0,  999.0,  999.0,  999.0,  999.0,  999.0,  999.0,  999.0,  999.0,  999.0,  999.0,  999.0,  999.0,  999.0,  999.0,  999.0,  999.0,  999.0,  999.0,  999.0,  999.0,  999.0,  999.0,  999.0,  999.0
2000/11/27 03:30,   -0.3,    0.5,    0.2,    0.3,    0.2,    0.3,   -0.1,    0.1,    0.1,    0.2,    0.4,    0.4,    0.2,    0.4,    0.2,    0.1,  999.0,  999.0,    0.0,  999.0,  999.0,  999.0,  999.0,  999.0,  999.0,  999.0,  999.0,  999.0,  999.0,  999.0,  999.0,  999.0,  999.0,  999.0,  999.0,  999.0,  999.0,  999.0,  999.0,  999.0,  999.0,  999.0,  999.0,  999.0,  999.0,  999.0,  999.0,  999.0,  999.0,  999.0,  999.0,  999.0,  999.0,  999.0,  999.0,  999.0,  999.0,  999.0
2000/11/27 03:40,    0.1,   -0.2,   -0.1,    0.1,  999.0,    0.4,    0.4,    0.2,    0.1,    0.0,   -0.6,    0.4,   -0.0,    1.0,    0.0,   -0.5,    0.2,  999.0,    0.1,    0.7,   -0.0,  999.0,  999.0,  999.0,  999.0,  999.0,  999.0,  999.0,  999.0,  999.0,  999.0,  999.0,  999.0,  999.0,  999.0,  999.0,  999.0,  999.0,  999.0,  999.0,  999.0,  999.0,  999.0,  999.0,  999.0,  999.0,  999.0,  999.0,  999.0,  999.0,  999.0,  999.0,  999.0,  999.0,  999.0,  999.0,  999.0,  999.0
2000/11/27 03:50,   -0.0,   -0.2,    0.1,   -0.1,    0.1,    0.5,    0.2,    0.3,    0.4,    0.5,    0.6,    0.4,   -0.0,    0.6,    0.3,  999.0,  999.0,    0.1,  999.0,  999.0,  999.0,  999.0,  999.0,  999.0,  999.0,  999.0,  999.0,  999.0,  999.0,  999.0,  999.0,  999.0,  999.0,  999.0,   -5.3,  999.0,  999.0,  999.0,  999.0,  999.0,   -5.6,   -5.5,  999.0,  999.0,  999.0,  999.0,  999.0,  999.0,   -5.7,  999.0,   -5.4,   -5.5,   -5.5,  999.0,  999.0,  999.0,  999.0,  999.0
2000/11/27 04:00,    0.1,    0.7,    0.2,    0.8,    0.0,    0.1,    0.3,    0.2,    0.4,    0.6,  999.0,   -0.4,   -0.2,   -0.4,   -0.2,   -0.3,  999.0,    0.2,  999.0,  999.0,  999.0,  999.0,  999.0,  999.0,  999.0,  999.0,  999.0,  999.0,  999.0,    0.2,  999.0,   -5.5,   -5.6,  999.0,  999.0,  999.0,   -5.6,  999.0,  999.0,   -5.5,  999.0,  999.0,  999.0,  999.0,  999.0,   -5.5,  999.0,  999.0,  999.0,  999.0,  999.0,  999.0,  999.0,  999.0,  999.0,  999.0,  999.0,   -5.6
2000/11/27 04:10,  999.0,    0.1,   -0.1,   -0.1,   -0.0,    0.2,    0.6,    0.4,    0.3,    0.0,   -0.1,   -0.0,    0.2,   -0.2,    0.1,    0.0,    0.1,  999.0,    0.2,  999.0,  999.0,  999.0,  999.0,  999.0,  999.0,    0.1,  999.0,  999.0,  999.0,  999.0,  999.0,  999.0,  999.0,  999.0,  999.0,  999.0,  999.0,  999.0,  999.0,  999.0,  999.0,  999.0,  999.0,  999.0,  999.0,  999.0,  999.0,  999.0,  999.0,  999.0,  999.0,  999.0,  999.0,  999.0,  999.0,  999.0,  999.0,  999.0
2000/11/27 04:20,   -0.5,    0.5,    0.1,    0.1,    0.3,    0.0,   -0.2,   -0.3,    0.1,    0.2,   -0.1,   -0.1,    0.2,  999.0,    0.1,   -0.1,  999.0,    0.1,  999.0,    0.1,  999.0,  999.0,  999.0,  999.0,  999.0,    0.1,  999.0,  999.0,  999.0,  999.0,  999.0,  999.0,  999.0,  999.0,  999.0,  999.0,  999.0,  999.0,  999.0,  999.0,  999.0,  999.0,  999.0,  999.0,  999.0,  999.0,  999.0,  999.0,  999.0,  999.0,  999.0,  999.0,  999.0,  999.0,  999.0,  999.0,  999.0,  999.0
2000/11/27 04:30,   -0.6,   -0.5,    0.3,    0.4,    0.3,   -0.2,    0.5,    0.4,    0.5,    0.1,    0.7,   -0.0,    0.4,   -0.8,    0.1,   -0.1,  999.0,   -0.0,  999.0,  999.0,  999.0,   -0.0,  999.0,   -0.0,    0.1,  999.0,  999.0,  999.0,  999.0,  999.0,  999.0,  999.0,  999.0,  999.0,  999.0,  999.0,  999.0,  999.0,  999.0,  999.0,  999.0,  999.0,  999.0,  999.0,  999.0,  999.0,  999.0,  999.0,  999.0,  999.0,  999.0,  999.0,  999.0,  999.0,  999.0,  999.0,  999.0,  999.0
2000/11/27 04:40,    0.2,    0.0,   -0.1,    0.4,   -0.3,   -0.1,   -0.3,    0.2,    0.6,   -0.0,   -0.0,   -0.1,   -0.0,    0.1,    0.0,   -0.1,  999.0,   -0.1,  999.0,  999.0,  999.0,  999.0,  999.0,  999.0,  999.0,  999.0,  999.0,  999.0,  999.0,  999.0,  999.0,  999.0,  999.0,  999.0,  999.0,  999.0,  999.0,  999.0,  999.0,  999.0,  999.0,  999.0,  999.0,  999.0,  999.0,  999.0,  999.0,  999.0,  999.0,  999.0,  999.0,  999.0,  999.0,  999.0,  999.0,  999.0,  999.0,  999.0
2000/11/27 04:50,   -0.5,  999.0,    0.0,   -0.4,   -0.7,   -0.4,   -0.2,   -0.4,   -0.1,   -0.5,   -0.0,    0.2,    0.0,    0.2,    0.1,    0.2,  999.0,    0.0,  999.0,  999.0,  999.0,  999.0,  999.0,  999.0,  999.0,  999.0,  999.0,   -0.1,  999.0,  999.0,  999.0,  999.0,  999.0,  999.0,  999.0,  999.0,  999.0,  999.0,  999.0,  999.0,  999.0,  999.0,  999.0,  999.0,  999.0,  999.0,  999.0,  999.0,  999.0,  999.0,  999.0,  999.0,  999.0,  999.0,  999.0,  999.0,  999.0,  999.0
2000/11/27 05:00,    0.1,    0.2,   -0.4,   -0.4,   -0.2,   -0.1,  999.0,   -0.4,  999.0,   -0.0,   -0.0,   -0.1,    0.0,    0.1,    0.1,    0.0,  999.0,   -0.1,  999.0,  999.0,  999.0,  999.0,  999.0,  999.0,  999.0,  999.0,  999.0,  999.0,  999.0,   -5.7,   -5.5,   -5.5,   -5.5,   -5.4,   -5.6,   -5.6,   -5.5,  999.0,   -5.5,   -5.4,   -5.5,   -5.5,   -5.5,   -5.5,   -5.4,   -5.5,   -5.5,   -5.4,   -5.5,   -5.4,   -5.6,   -5.4,  999.0,  999.0,   -5.6,  999.0,  999.0,  999.0
2000/11/27 05:10,   -0.1,   -0.1,    0.4,   -0.1,   -0.2,   -0.1,   -0.4,   -0.1,   -0.1,  999.0,  999.0,   -0.0,    0.1,   -0.1,    0.1,   -0.1,  999.0,  999.0,  999.0,  999.0,  999.0,  999.0,  999.0,  999.0,  999.0,  999.0,  999.0,  999.0,   -5.4,   -5.6,   -5.6,   -5.6,   -5.5,   -5.7,   -5.5,   -5.5,   -5.5,   -5.5,   -5.6,   -5.5,   -5.6,   -5.4,  999.0,   -5.6,   -5.5,   -5.6,   -5.5,   -5.7,   -5.6,   -5.6,   -5.5,   -5.6,   -5.6,  999.0,  999.0,   -5.6,   -5.5,   -5.5
2000/11/27 05:20,   -0.1,   -0.2,    0.5,    0.0,   -0.1,   -0.1,   -0.2,   -0.1,  999.0,    0.1,    0.2,    0.2,    0.2,   -0.2,   -0.1,   -0.1,  999.0,  999.0,  999.0,    0.0,  999.0,  999.0,  999.0,  999.0,  999.0,  999.0,  999.0,  999.0,  999.0,  999.0,  999.0,  999.0,   -5.5,   -5.6,   -5.5,  999.0,   -5.4,   -5.6,   -5.6,   -5.6,   -5.5,  999.0,  999.0,   -5.5,   -5.5,   -5.5,   -5.5,   -5.5,   -5.6,   -5.4,   -5.6,   -5.5,   -5.6,   -5.6,  999.0,   -5.4,   -5.4,  999.0
2000/11/27 05:30,    0.2,    0.0,    0.1,    0.0,    0.0,   -0.0,    0.0,   -0.0,    0.2,    0.3,    0.1,    0.0,    0.1,    0.4,    0.2,   -0.2,  999.0,   -0.1,  999.0,  999.0,  999.0,  999.0,  999.0,  999.0,  999.0,  999.0,  999.0,   -5.5,  999.0,   -5.5,   -5.5,   -5.6,   -5.6,   -5.5,   -5.5,   -5.4,   -5.6,   -5.6,   -5.5,   -5.6,   -5.6,   -5.4,  999.0,   -5.5,   -5.6,   -5.6,   -5.6,   -5.7,   -5.5,  999.0,   -5.5,   -5.4,   -5.5,   -5.5,   -5.6,   -5.6,   -5.5,   -5.7
2000/11/27 05:40,    0.0,    0.1,   -0.0,   -0.2,   -0.1,   -0.1,   -0.1,   -0.1,    0.8,    0.2,    0.1,   -0.1,    0.1,    0.3,    0.1,   -0.1,  999.0,    0.0,  999.0,  999.0,  999.0,  999.0,  999.0,  999.0,  999.0,  999.0,  999.0,  999.0,   -5.6,   -5.5,   -5.5,   -5.6,   -5.4,   -5.5,   -5.6,   -5.6,   -5.6,   -5.6,   -5.6,   -5.7,   -5.6,   -5.6,  999.0,   -5.6,  999.0,   -5.4,   -5.6,   -5.7,   -5.5,   -5.5,   -5.8,   -5.6,   -5.7,   -5.6,   -5.6,   -5.6,   -5.6,   -5.6
2000/11/27 05:50,    0.0,   -0.2,    0.3,    0.3,    0.3,   -0.1,   -0.1,   -0.5,   -0.7,    0.0,    0.1,    0.1,    0.1,    0.0,    0.1,   -0.0,  999.0,   -0.0,  999.0,  999.0,  999.0,  999.0,  999.0,  999.0,  999.0,  999.0,  999.0,  999.0,   -5.7,   -5.6,   -5.6,  999.0,   -5.7,  999.0,   -5.6,   -5.6,  999.0,   -5.6,   -5.5,   -5.6,   -5.6,   -5.7,   -5.5,  999.0,   -5.6,   -5.7,   -5.5,   -5.6,   -5.6,   -5.4,   -5.6,   -5.6,   -5.6,   -5.5,   -5.5,  999.0,   -5.6,   -5.8
2000/11/27 06:00,   -0.4,    0.2,    0.5,    0.2,    0.3,    0.0,   -0.2,   -0.1,    0.9,    0.1,    0.1,    0.1,    0.3,    0.5,    0.5,   -0.1,  999.0,   -0.0,  999.0,  999.0,  999.0,  999.0,  999.0,  999.0,  999.0,  999.0,  999.0,  999.0,  999.0,  999.0,  999.0,  999.0,   -5.5,   -5.5,   -5.5,  999.0,   -5.4,   -5.5,   -5.5,   -5.4,   -5.7,  999.0,   -5.6,   -5.6,   -5.6,   -5.6,   -5.6,   -5.4,   -5.6,   -5.5,   -5.5,   -5.5,   -5.4,   -5.4,   -5.5,   -5.4,   -5.6,   -5.6
2000/11/27 06:10,   -0.1,    0.1,    0.2,    0.2,   -0.1,   -0.1,    0.0,   -0.2,  999.0,    0.0,    0.2,    0.2,    0.2,  999.0,    0.2,  999.0,   -0.1,   -0.1,  999.0,  999.0,  999.0,  999.0,  999.0,  999.0,  999.0,  999.0,  999.0,  999.0,  999.0,  999.0,   -5.5,   -5.4,   -5.5,   -5.5,   -5.5,  999.0,   -5.5,   -5.2,   -5.5,   -5.4,   -5.4,   -5.4,   -5.5,   -5.6,   -5.5,   -5.5,   -5.5,   -5.7,   -5.5,  999.0,   -5.4,   -5.4,   -5.4,   -5.3,   -5.5,   -5.5,   -5.4,   -5.5
2000/11/27 06:20,   -0.1,   -0.3,   -0.0,   -0.2,   -0.1,   -0.0,   -0.1,   -0.1,  999.0,    0.0,    0.0,    0.1,    0.2,  999.0,    0.2,    0.2,  999.0,  999.0,    0.1,  999.0,  999.0,  999.0,  999.0,  999.0,  999.0,  999.0,  999.0,  999.0,  999.0,  999.0,  999.0,  999.0,  999.0,  999.0,  999.0,  999.0,  999.0,   -5.3,   -5.4,   -5.4,   -5.4,  999.0,  999.0,   -5.4,   -5.4,   -5.4,   -5.5,   -5.4,   -5.4,   -5.6,   -5.5,  999.0,   -5.4,   -5.4,   -5.4,   -5.5,   -5.5,  999.0
2000/11/27 06:30,   -0.1,   -0.2,   -0.1,   -0.1,   -0.1,   -0.1,   -0.2,   -0.1,    0.1,    0.1,   -0.0,    0.0,   -0.0,   -0.4,    0.0,   -0.1,  999.0,    0.0,  999.0,    0.6,  999.0,  999.0,  999.0,  999.0,  999.0,  999.0,  999.0,  999.0,   -5.6,   -5.7,   -5.7,   -5.7,  999.0,  999.0,   -5.6,  999.0,  999.0,  999.0,   -5.7,   -5.6,   -5.5,   -5.7,   -5.6,   -5.6,   -5.6,  999.0,   -5.6,   -5.4,   -5.6,  999.0,   -5.6,   -5.6,   -5.6,   -5.6,   -5.6,  999.0,   -5.7,   -5.5
2000/11/27 06:40,   -0.2,   -0.2,   -0.2,   -0.1,   -0.3,   -0.1,   -0.1,   -0.3,   -0.0,    0.0,   -0.1,    0.1,    0.2,    0.7,    0.2,   -0.0,  999.0,  999.0,  999.0,  999.0,  999.0,  999.0,  999.0,  999.0,  999.0,  999.0,  999.0,  999.0,  999.0,  999.0,  999.0,  999.0,   -5.5,   -5.5,  999.0,   -5.5,   -5.5,   -5.4,   -5.7,   -5.6,   -5.6,   -5.5,   -5.5,   -5.6,   -5.5,   -5.5,   -5.5,   -5.5,   -5.6,   -5.5,   -5.7,   -5.4,  999.0,   -5.6,   -5.6,   -5.5,   -5.8,   -5.5
2000/11/27 06:50,   -0.3,   -0.2,   -0.1,   -0.2,   -0.2,   -0.0,   -0.1,   -0.1,   -0.0,   -0.0,   -0.1,    0.0,    0.1,    0.1,    0.0,   -0.0,   -0.8,   -0.1,  999.0,  999.0,  999.0,  999.0,  999.0,  999.0,  999.0,  999.0,  999.0,  999.0,  999.0,  999.0,   -5.4,   -5.4,  999.0,   -5.4,   -5.4,   -5.5,   -5.5,  999.0,   -5.5,   -5.5,   -5.4,   -5.4,   -5.4,   -5.5,   -5.5,   -5.5,  999.0,   -5.5,   -5.4,   -5.4,   -5.4,   -5.4,   -5.4,   -5.5,   -5.5,   -5.5,   -5.5,   -5.4
2000/11/27 07:00,   -0.2,   -0.3,   -0.3,   -0.2,   -0.1,   -0.0,   -0.0,   -0.2,    0.0,    0.1,    0.2,    0.0,    0.1,   -0.0,    0.0,   -0.1,  999.0,  999.0,  999.0,  999.0,  999.0,  999.0,  999.0,   -5.6,   -5.6,  999.0,  999.0,   -5.5,   -5.4,   -5.4,   -5.5,   -5.5,   -5.5,  999.0,   -5.4,   -5.5,   -5.5,   -5.4,   -5.5,   -5.5,   -5.6,   -5.4,   -5.6,   -5.5,   -5.5,   -5.5,   -5.5,   -5.5,   -5.4,   -5.5,   -5.5,   -5.5,   -5.6,   -5.5,   -5.5,   -5.6,   -5.5,   -5.5
2000/11/27 07:10,   -0.2,   -0.1,    0.0,    0.0,   -0.1,   -0.1,   -0.2,   -0.2,  999.0,   -0.1,   -0.0,   -0.0,    0.1,   -0.1,    0.0,   -0.1,  999.0,  999.0,  999.0,  999.0,  999.0,  999.0,  999.0,  999.0,  999.0,  999.0,  999.0,   -5.5,   -5.4,   -5.4,   -5.5,   -5.3,   -5.5,   -5.4,   -5.5,  999.0,   -5.4,   -5.5,   -5.4,   -5.4,   -5.5,   -5.4,   -5.5,   -5.5,   -5.4,   -5.5,   -5.5,   -5.4,   -5.5,   -5.5,   -5.5,   -5.4,   -5.4,   -5.5,   -5.4,   -5.5,   -5.4,   -5.4
2000/11/27 07:20,   -0.1,   -0.1,   -0.1,   -0.1,   -0.2,   -0.1,   -0.1,   -0.1,  999.0,    0.0,   -0.1,    0.1,    0.0,  999.0,    0.1,   -0.0,  999.0,  999.0,  999.0,  999.0,  999.0,  999.0,  999.0,   -5.4,   -5.4,  999.0,   -5.4,   -5.5,   -5.5,   -5.7,   -5.5,   -5.5,   -5.5,   -5.5,   -5.5,   -5.5,   -5.6,  999.0,   -5.5,   -5.4,   -5.5,   -5.5,   -5.4,   -5.5,   -5.5,   -5.6,   -5.5,   -5.5,   -5.4,   -5.6,   -5.4,   -5.4,   -5.4,   -5.5,   -5.5,   -5.5,   -5.5,   -5.4
2000/11/27 07:30,   -0.0,   -0.0,   -0.1,   -0.1,   -0.1,   -0.0,   -0.1,   -0.2,  999.0,    0.1,   -0.0,    0.1,    0.2,  999.0,    0.1,   -0.1,  999.0,  999.0,  999.0,  999.0,  999.0,  999.0,  999.0,   -5.5,   -5.4,   -5.5,   -5.5,   -5.5,   -5.5,   -5.4,   -5.5,   -5.4,   -5.5,   -5.4,   -5.5,   -5.5,   -5.5,   -5.5,   -5.5,   -5.5,   -5.5,   -5.5,   -5.5,  999.0,   -5.5,   -5.5,   -5.5,   -5.4,   -5.4,   -5.5,   -5.5,   -5.5,   -5.6,   -5.4,  999.0,   -5.5,   -5.5,   -5.5
2000/11/27 07:40,   -0.0,    0.1,    0.1,   -0.2,   -0.1,   -0.1,   -0.1,   -0.2,    0.1,    0.0,   -0.2,    0.1,   -0.1,  999.0,  999.0,  999.0,  999.0,  999.0,  999.0,  999.0,  999.0,  999.0,  999.0,  999.0,  999.0,   -5.6,   -5.4,  999.0,   -5.4,   -5.5,   -5.5,   -5.4,   -5.5,   -5.6,   -5.5,  999.0,   -5.5,   -5.5,   -5.4,   -5.4,   -5.4,   -5.4,   -5.5,   -5.5,   -5.6,   -5.6,   -5.5,   -5.4,   -5.4,   -5.5,   -5.5,   -5.5,   -5.6,   -5.6,   -5.5,   -5.5,   -5.5,   -5.5
2000/11/27 07:50,    0.1,    0.1,    0.1,    0.0,   -0.1,   -0.1,   -0.1,   -0.3,  999.0,    0.1,   -0.0,    0.1,    0.1,   -0.0,    0.0,    0.0,  999.0,  999.0,  999.0,  999.0,  999.0,  999.0,  999.0,  999.0,  999.0,   -5.3,   -5.3,   -5.4,   -5.4,   -5.5,   -5.6,   -5.5,  999.0,   -5.4,   -5.4,   -5.5,   -5.4,   -5.4,   -5.4,   -5.4,   -5.4,   -5.4,   -5.4,  999.0,  999.0,   -5.5,   -5.4,   -5.4,   -5.5,   -5.5,   -5.3,  999.0,   -5.4,   -5.5,   -5.4,   -5.4,   -5.5,   -5.3
2000/11/27 08:00,   -0.1,    0.0,   -0.0,   -0.1,    0.0,   -0.1,   -0.0,   -0.1,  999.0,   -0.1,   -0.0,    0.0,  999.0,   -0.0,   -0.0,   -0.1,  999.0,  999.0,  999.0,  999.0,  999.0,  999.0,  999.0,  999.0,  999.0,  999.0,   -5.4,  999.0,   -5.4,   -5.5,   -5.5,   -5.5,   -5.5,   -5.6,   -5.5,   -5.5,   -5.5,   -5.6,   -5.5,   -5.5,   -5.5,   -5.5,   -5.5,   -5.5,   -5.5,   -5.4,   -5.4,  999.0,  999.0,   -5.5,   -5.6,   -5.6,   -5.5,   -5.5,   -5.4,   -5.5,   -5.4,   -5.5
2000/11/27 08:10,    0.1,    0.1,    0.3,    0.0,    0.0,   -0.1,    0.0,   -0.1,    0.0,    0.1,   -0.0,    0.2,   -0.0,   -0.0,   -0.1,    0.0,  999.0,  999.0,  999.0,  999.0,  999.0,  999.0,  999.0,  999.0,  999.0,  999.0,   -5.4,   -5.4,   -5.5,   -5.4,   -5.4,   -5.3,   -5.5,   -5.4,   -5.4,   -5.5,   -5.4,   -5.5,   -5.4,   -5.4,   -5.5,   -5.5,   -5.5,   -5.4,   -5.4,   -5.5,   -5.5,   -5.4,   -5.5,   -5.5,   -5.4,   -5.4,   -5.4,   -5.5,   -5.4,   -5.5,   -5.5,   -5.4
2000/11/27 08:20,    0.1,    0.1,    0.1,    0.0,   -0.1,   -0.1,    0.0,   -0.0,    0.1,    0.1,    0.1,    0.0,    0.1,    0.0,    0.1,   -0.1,  999.0,  999.0,  999.0,  999.0,  999.0,  999.0,  999.0,  999.0,  999.0,   -5.5,  999.0,  999.0,   -5.5,  999.0,   -5.5,   -5.5,   -5.4,   -5.6,  999.0,   -5.6,   -5.5,   -5.5,   -5.5,   -5.4,   -5.5,   -5.5,   -5.5,   -5.5,   -5.5,  999.0,   -5.5,   -5.5,   -5.5,   -5.5,  999.0,   -5.6,   -5.4,  999.0,   -5.5,   -5.5,   -5.5,   -5.5
2000/11/27 08:30,   -0.1,    0.0,   -0.0,   -0.0,    0.0,   -0.0,   -0.1,   -0.1,    0.1,    0.2,   -0.1,   -0.0,    0.0,    0.1,    0.0,    0.0,   -0.0,   -0.2,  999.0,  999.0,  999.0,  999.0,  999.0,  999.0,  999.0,  999.0,  999.0,   -5.6,  999.0,   -5.5,   -5.5,   -5.5,   -5.4,   -5.4,   -5.5,  999.0,   -5.6,   -5.5,   -5.5,   -5.5,   -5.4,   -5.5,   -5.4,   -5.5,   -5.5,   -5.4,   -5.5,   -5.5,   -5.6,   -5.5,   -5.4,   -5.5,   -5.5,   -5.5,   -5.5,   -5.6,   -5.4,   -5.4
2000/11/27 08:40,   -0.0,   -0.1,   -0.0,   -0.0,    0.0,    0.1,   -0.0,   -0.1,   -0.1,    0.0,   -0.0,    0.1,    0.1,    0.0,    0.1,   -0.1,  999.0,  999.0,  999.0,  999.0,  999.0,  999.0,  999.0,   -5.6,   -5.5,  999.0,   -5.5,   -5.4,   -5.5,   -5.5,   -5.5,   -5.5,   -5.5,   -5.5,   -5.6,   -5.4,   -5.5,   -5.5,   -5.6,   -5.5,   -5.5,   -5.5,   -5.5,   -5.5,   -5.5,   -5.6,   -5.5,   -5.5,   -5.4,   -5.5,   -5.5,   -5.4,   -5.5,   -5.5,   -5.5,   -5.4,   -5.6,   -5.5
2000/11/27 08:50,    0.1,    0.1,   -0.1,   -0.2,    0.3,    0.1,    0.1,   -0.1,   -0.1,   -0.0,    0.1,    0.0,    0.0,    0.1,    0.1,   -0.0,  999.0,  999.0,  999.0,  999.0,  999.0,  999.0,  999.0,  999.0,  999.0,  999.0,  999.0,   -5.5,   -5.7,   -5.5,   -5.5,   -5.5,   -5.5,   -5.5,   -5.5,   -5.5,   -5.6,   -5.5,   -5.6,  999.0,   -5.4,   -5.6,   -5.5,   -5.6,   -5.5,   -5.6,   -5.4,   -5.5,   -5.4,   -5.6,   -5.6,   -5.5,   -5.5,  999.0,   -5.5,   -5.5,   -5.5,   -5.4
2000/11/27 09:00,   -0.0,   -0.0,   -0.2,   -0.1,   -0.0,    0.1,    0.1,    0.1,   -0.1,   -0.0,    0.0,   -0.0,    0.1,   -0.1,   -0.1,  999.0,   -0.2,  999.0,  999.0,  999.0,  999.0,  999.0,  999.0,   -5.5,   -5.5,   -5.5,   -5.5,   -5.5,  999.0,   -5.5,   -5.6,   -5.5,   -5.5,   -5.5,   -5.5,   -5.5,   -5.4,   -5.5,   -5.4,   -5.5,   -5.5,   -5.5,   -5.4,   -5.5,   -5.5,   -5.5,   -5.5,   -5.5,   -5.5,   -5.6,   -5.5,   -5.4,   -5.5,   -5.4,   -5.4,   -5.5,   -5.5,   -5.6
2000/11/27 09:10,    0.0,   -0.0,   -0.1,   -0.1,    0.1,    0.1,    0.1,    0.1,    0.0,    0.0,   -0.0,    0.1,    0.1,    0.0,    0.0,  999.0,  999.0,  999.0,  999.0,  999.0,  999.0,  999.0,  999.0,  999.0,   -5.6,   -5.5,   -5.4,  999.0,  999.0,   -5.6,  999.0,   -5.4,  999.0,   -5.6,  999.0,  999.0,  999.0,   -5.5,   -5.6,   -5.5,  999.0,  999.0,  999.0,  999.0,  999.0,   -5.4,  999.0,   -5.5,  999.0,  999.0,   -5.5,   -5.5,  999.0,   -5.5,   -5.6,   -5.4,   -5.4,   -5.6
2000/11/27 09:20,   -0.1,   -0.1,   -0.1,   -0.1,   -0.1,    0.1,   -0.1,   -0.2,   -0.1,   -0.1,   -0.0,    0.1,    0.1,    0.1,  999.0,  999.0,  999.0,  999.0,  999.0,  999.0,  999.0,  999.0,  999.0,  999.0,  999.0,  999.0,  999.0,  999.0,  999.0,  999.0,  999.0,  999.0,  999.0,    5.4,    5.6,  999.0,  999.0,    5.5,  999.0,  999.0,    5.6,  999.0,  999.0,  999.0,    5.4,    5.5,    5.5,    5.5,  999.0,  999.0,  999.0,  999.0,  999.0,  999.0,  999.0,  999.0,    5.4,  999.0
2000/11/27 09:30,   -0.0,   -0.1,   -0.0,   -0.0,    0.1,    0.2,   -0.0,    0.1,    0.1,    0.1,    0.0,    0.1,    0.1,    0.0,    0.1,  999.0,   -0.2,  999.0,  999.0,  999.0,  999.0,  999.0,  999.0,  999.0,  999.0,  999.0,   -5.4,  999.0,  999.0,    5.4,  999.0,    5.5,   -5.5,    5.4,    5.5,  999.0,  999.0,    5.5,  999.0,  999.0,    5.4,  999.0,    5.5,    5.6,    5.6,    5.6,    5.5,  999.0,  999.0,  999.0,    5.4,  999.0,  999.0,   -5.5,    5.5,   -5.5,    5.5,    5.5
2000/11/27 09:40,   -0.1,   -0.2,   -0.2,   -0.0,    0.0,    0.1,    0.1,   -0.1,   -0.1,  999.0,    0.0,    0.0,   -0.1,    0.2,  999.0,  999.0,  999.0,  999.0,  999.0,  999.0,  999.0,  999.0,  999.0,    5.5,  999.0,    5.4,  999.0,    5.5,    5.5,    5.7,    5.5,    5.6,  999.0,    5.4,  999.0,  999.0,  999.0,  999.0,  999.0,  999.0,  999.0,  999.0,  999.0,  999.0,  999.0,  999.0,  999.0,   -5.5,   -5.6,  999.0,  999.0,   -5.5,   -5.6,   -5.5,  999.0,  999.0,  999.0,  999.0
2000/11/27 09:50,   -0.1,    0.1,   -0.0,   -0.1,    0.0,    0.2,    0.2,    0.0,   -0.1,  999.0,    0.0,    0.1,    0.1,  999.0,    0.0,  999.0,  999.0,  999.0,  999.0,  999.0,  999.0,    5.5,  999.0,    5.5,  999.0,    5.5,    5.5,    5.5,    5.5,    5.5,    5.6,    5.5,  999.0,  999.0,  999.0,  999.0,  999.0,  999.0,  999.0,  999.0,    5.6,  999.0,  999.0,  999.0,  999.0,  999.0,   -5.4,   -5.4,   -5.7,   -5.5,   -5.6,   -5.6,   -5.5,   -5.5,   -5.4,   -5.6,  999.0,  999.0
2000/11/27 10:00,    0.0,    0.1,   -0.1,   -0.1,   -0.0,    0.3,    0.5,    0.1,  999.0,   -0.1,    0.1,    0.1,  999.0,    0.1,  999.0,  999.0,  999.0,  999.0,  999.0,  999.0,  999.0,    5.4,    5.4,    5.4,    5.5,    5.5,  999.0,    5.5,    5.5,    5.5,    5.4,    5.6,    5.6,    5.4,    5.4,  999.0,  999.0,    5.4,  999.0,    5.4,    5.5,  999.0,    5.5,    5.4,    5.5,    5.5,  999.0,   -5.5,   -5.4,  999.0,   -5.5,   -5.5,   -5.5,   -5.5,   -5.4,   -5.6,   -5.5,   -5.6
2000/11/27 10:10,    0.0,    0.3,   -0.0,   -0.0,   -0.1,   -0.3,    0.1,    0.0,  999.0,  999.0,    0.0,    0.0,    0.2,  999.0,    0.1,  999.0,  999.0,  999.0,  999.0,    5.6,  999.0,  999.0,    5.6,    5.5,    5.5,    5.5,    5.5,    5.5,    5.5,    5.5,    5.5,    5.4,    5.5,    5.4,    5.5,    5.4,    5.6,    5.5,    5.5,    5.5,    5.5,    5.4,    5.5,    5.5,    5.5,    5.5,    5.5,    5.5,    5.5,    5.5,    5.6,    5.5,    5.5,    5.5,    5.5,    5.5,    5.5,    5.5
2000/11/27 10:20,   -0.1,   -0.1,   -0.1,   -0.3,   -0.4,   -0.2,    0.2,   -0.0,    0.1,  999.0,    0.2,    0.0,  999.0,  999.0,  999.0,  999.0,  999.0,  999.0,  999.0,  999.0,  999.0,  999.0,    5.4,    5.4,    5.5,    5.5,    5.5,    5.5,    5.5,    5.4,    5.5,    5.5,    5.4,    5.4,    5.4,  999.0,    5.5,    5.5,  999.0,    5.5,    5.5,    5.4,    5.4,    5.5,    5.5,    5.5,    5.4,  999.0,    5.5,    5.6,  999.0,    5.4,    5.4,    5.5,    5.4,    5.5,    5.4,    5.4
2000/11/27 10:30,   -0.1,   -0.1,    0.0,   -0.1,    0.0,    0.0,   -0.1,   -0.0,   -0.1,  999.0,    0.1,   -0.1,    0.1,  999.0,    0.0,  999.0,  999.0,  999.0,  999.0,  999.0,  999.0,  999.0,    5.6,    5.6,    5.6,    5.6,    5.5,    5.5,  999.0,    5.6,    5.5,    5.5,    5.5,    5.6,    5.6,    5.5,    5.5,    5.5,    5.6,    5.6,    5.6,    5.4,    5.5,    5.5,    5.5,    5.5,    5.5,    5.5,    5.6,    5.6,    5.5,    5.5,    5.5,  999.0,    5.5,    5.6,    5.5,    5.6
2000/11/27 10:40,   -0.0,    0.0,   -0.1,   -0.1,    0.0,    0.1,    0.1,    0.2,    0.0,   -0.1,    0.1,    0.1,    0.1,    0.5,    0.0,    0.9,  999.0,  999.0,  999.0,  999.0,  999.0,    5.6,    5.5,    5.6,    5.5,    5.5,    5.5,    5.5,    5.5,    5.5,    5.6,    5.6,    5.5,    5.5,    5.5,    5.5,    5.5,    5.5,    5.5,    5.5,    5.5,    5.5,    5.5,    5.4,    5.5,    5.5,    5.4,    5.5,    5.4,    5.6,    5.5,    5.6,    5.5,  999.0,    5.5,    5.5,    5.5,    5.5
2000/11/27 10:50,   -0.0,    0.2,    0.1,    0.1,    0.1,    0.3,    0.3,    0.1,   -0.2,   -0.1,  999.0,    0.1,    0.1,    0.1,    0.0,  999.0,  999.0,  999.0,  999.0,  999.0,  999.0,    5.5,    5.5,    5.5,    5.6,    5.5,    5.5,    5.5,    5.5,    5.5,    5.6,    5.5,    5.5,    5.6,    5.6,    5.5,    5.6,    5.6,    5.5,    5.5,    5.6,    5.5,    5.5,    5.6,    5.5,    5.5,    5.6,    5.5,    5.6,    5.5,    5.5,    5.5,    5.5,    5.5,    5.5,    5.5,    5.6,    5.6
2000/11/27 11:00,    0.1,   -0.0,    0.1,   -0.0,    0.1,   -0.0,    0.0,    0.1,    0.2,    0.0,   -0.2,    0.0,    0.1,    0.2,    0.1,  999.0,  999.0,  999.0,  999.0,  999.0,  999.0,  999.0,    5.5,    5.5,    5.4,    5.5,    5.5,    5.5,    5.5,    5.5,    5.5,    5.5,    5.5,    5.6,    5.5,    5.5,    5.5,    5.5,    5.5,    5.5,    5.5,    5.4,    5.4,    5.5,    5.4,    5.5,    5.5,    5.6,    5.5,    5.5,    5.5,    5.5,    5.5,    5.5,    5.5,    5.5,    5.5,    5.6
2000/11/27 11:10,    0.0,   -0.1,   -0.1,    0.0,    0.1,    0.1,    0.1,    0.2,   -0.0,    0.0,    0.0,    0.1,    0.1,    0.3,   -0.0,  999.0,  999.0,  999.0,  999.0,  999.0,  999.0,    5.4,    5.6,    5.5,    5.5,    5.6,    5.5,    5.5,    5.6,    5.5,    5.5,    5.5,    5.6,    5.5,    5.5,    5.5,    5.5,    5.5,    5.4,    5.5,    5.5,    5.4,    5.5,    5.5,    5.5,    5.5,    5.5,    5.5,    5.4,    5.4,    5.4,    5.6,    5.4,    5.5,    5.5,    5.5,    5.5,    5.5
2000/11/27 11:20,    0.0,   -0.0,   -0.1,   -0.1,   -0.1,   -0.1,   -0.1,    0.2,    0.0,   -0.3,    0.5,    0.0,    0.0,   -0.1,    0.1,  999.0,  999.0,  999.0,  999.0,  999.0,  999.0,  999.0,    5.6,  999.0,    5.5,    5.6,    5.5,    5.4,    5.5,    5.5,    5.6,    5.4,    5.5,    5.5,  999.0,    5.5,    5.5,    5.5,    5.6,    5.5,    5.6,    5.5,    5.6,    5.5,    5.6,    5.5,    5.6,    5.5,    5.5,    5.6,    5.6,    5.4,    5.6,    5.5,    5.5,    5.5,    5.4,    5.5
2000/11/27 11:30,   -0.0,    0.1,    0.2,    0.1,   -0.0,   -0.1,   -0.0,    0.1,    0.1,   -0.2,    0.1,    0.1,    0.2,   -0.1,    0.1,  999.0,  999.0,  999.0,  999.0,  999.0,  999.0,    5.4,    5.5,    5.5,    5.5,    5.5,    5.5,    5.5,    5.4,    5.6,    5.5,    5.5,    5.5,    5.5,    5.5,    5.5,    5.5,    5.5,    5.4,    5.5,    5.5,    5.5,    5.5,    5.5,    5.5,    5.5,    5.4,    5.5,    5.5,    5.5,    5.5,  999.0,    5.5,    5.4,    5.5,  999.0,    5.5,    5.5
2000/11/27 11:40,   -0.0,    0.2,    0.2,   -0.1,   -0.1,   -0.0,   -0.1,   -0.0,   -0.2,   -0.2,    0.2,    0.0,   -0.1,  999.0,    0.1,  999.0,  999.0,  999.0,  999.0,  999.0,    5.5,    5.5,    5.4,    5.5,    5.5,    5.5,    5.5,    5.5,    5.5,  999.0,    5.5,  999.0,    5.5,    5.5,  999.0,  999.0,    5.4,    5.5,    5.4,    5.5,    5.7,  999.0,    5.5,    5.6,  999.0,    5.5,    5.6,    5.6,    5.5,    5.5,    5.5,    5.5,    5.5,    5.5,    5.5,    5.6,    5.5,    5.5
2000/11/27 11:50,   -0.0,   -0.0,    0.0,    0.0,   -0.1,   -0.1,   -0.4,   -0.6,   -0.4,   -0.2,   -0.2,   -0.2,   -0.0,    0.1,  999.0,  999.0,  999.0,  999.0,  999.0,  999.0,  999.0,  999.0,    5.5,    5.5,    5.5,    5.5,    5.5,    5.5,    5.5,    5.6,    5.5,    5.5,    5.5,    5.5,    5.4,    5.5,    5.6,    5.5,    5.4,    5.5,    5.5,    5.5,    5.5,    5.4,    5.5,    5.6,    5.5,    5.4,    5.5,    5.4,    5.5,    5.5,    5.5,    5.4,    5.5,    5.5,    5.7,    5.4
2000/11/27 12:00,    0.1,   -0.0,   -0.0,   -0.0,   -0.1,   -0.1,   -0.2,    0.1,   -0.0,    0.2,    0.1,    0.0,    0.2,    2.8,    0.1,    3.2,    5.6,    5.5,    5.6,  999.0,    5.6,    5.6,    5.6,  999.0,    5.5,    5.5,    5.5,    5.6,    5.5,    5.5,    5.5,    5.5,   -0.1,    5.6,    5.5,    5.5,    5.5,    5.5,    5.6,    5.6,    5.6,    5.6,    5.5,    5.5,    5.5,    5.5,    5.5,    5.5,    5.5,    5.6,    5.5,    5.6,    5.5,    5.6,    5.5,    5.6,    5.6,    0.0
2000/11/27 12:10,   -0.1,   -0.2,   -0.1,   -0.1,   -0.0,    0.0,    0.3,    0.2,    0.4,    0.3,    0.4,    0.2,    0.1,   -0.0,    5.5,    5.5,    1.4,    1.6,    3.6,    5.5,   -2.2,    2.9,    2.9,    5.5,    5.6,   -5.5,    3.6,    2.7,    1.7,   -0.0,    5.6,    2.8,   -0.0,    2.8,    3.7,    2.7,    1.8,    5.5,   -0.1,    5.5,    3.6,    5.5,    5.5,    0.0,    5.5,    5.5,    5.5,    2.7,    5.5,    3.7,    5.6,    5.4,    5.5,    0.1,   -5.5,  999.0,    5.5,   -0.0
2000/11/27 12:20,  999.0,   -0.0,    0.1,   -0.0,   -0.1,   -0.0,   -0.0,   -0.1,   -0.1,    0.1,   -0.2,   -0.3,   -0.3,   -2.2,   -3.6,   -2.9,   -2.9,   -3.3,   -4.5,   -3.5,   -5.6,   -5.5,   -5.6,   -5.5,   -5.5,   -5.5,   -5.6,   -5.5,   -5.5,   -5.5,   -5.5,   -1.8,   -3.7,   -5.5,   -1.8,   -5.5,   -5.5,   -5.6,   -3.7,   -5.5,   -5.6,   -2.7,   -5.5,   -1.9,   -5.4,   -2.6,   -3.6,   -5.5,   -5.5,   -2.8,   -2.8,   -5.5,   -0.1,   -1.8,   -0.0,  999.0,   -5.5,  999.0
2000/11/27 12:30,   -1.1,    0.0,    0.1,    0.1,    0.1,    0.1,    0.3,    0.4,    0.7,    1.1,    1.1,    0.9,   -1.0,   -1.8,   -2.4,   -3.7,   -3.5,   -4.0,   -4.1,   -3.9,   -3.8,   -4.1,   -4.2,   -4.2,   -4.3,   -4.2,   -4.1,   -4.0,   -4.0,   -3.8,   -4.6,   -3.0,   -3.6,   -4.2,   -4.0,   -4.1,   -4.0,   -4.1,   -4.6,   -4.0,   -3.9,   -4.4,   -3.6,   -3.3,   -2.7,  999.0,  999.0,  999.0,  999.0,  999.0,  999.0,  999.0,  999.0,  999.0,   -5.5,   -5.5,  999.0,  999.0
2000/11/27 12:40,   -1.0,   -0.0,    0.0,    0.0,    0.0,   -0.0,    0.1,    0.3,   -0.1,   -0.1,   -0.3,   -0.3,   -1.7,   -1.9,   -2.9,   -1.8,   -4.6,   -4.1,   -4.7,   -3.7,   -3.6,   -3.5,   -3.9,   -3.5,   -3.1,   -3.1,   -4.0,   -5.2,   -4.7,   -5.7,   -5.5,   -3.2,   -5.4,  999.0,   -5.5,   -5.5,   -5.4,   -5.1,   -5.5,   -4.3,  999.0,   -5.5,   -5.4,   -5.5,   -5.6,  999.0,  999.0,  999.0,  999.0,  999.0,  999.0,  999.0,  999.0,  999.0,  999.0,   -5.5,   -5.4,  999.0
2000/11/27 12:50,   -0.9,   -0.0,   -0.4,  999.0,  999.0,  999.0,  999.0,  999.0,  999.0,  999.0,  999.0,   -0.7,   -0.5,   -1.7,   -1.1,  999.0,  999.0,  999.0,  999.0,   -5.5,  999.0,   -5.5,  999.0,  999.0,  999.0,  999.0,  999.0,  999.0,   -5.5,  999.0,  999.0,  999.0,  999.0,  999.0,  999.0,  999.0,  999.0,  999.0,  999.0,  999.0,  999.0,  999.0,  999.0,  999.0,  999.0,  999.0,  999.0,  999.0,  999.0,  999.0,  999.0,  999.0,  999.0,  999.0,  999.0,  999.0,  999.0,  999.0
2000/11/27 13:00,   -4.1,   -4.0,   -2.8,   -3.3,   -5.6,   -2.5,   -6.4,   -6.7,   -6.6,   -6.0,   -6.6,   -6.9,   -6.7,   -7.2,   -7.2,   -7.0,   -6.8,   -6.6,   -6.4,   -6.3,   -6.2,   -5.9,   -6.2,   -6.3,   -6.3,   -6.5,   -6.7,   -6.9,   -7.0,   -7.2,   -7.3,   -7.5,   -7.4,   -7.3,   -7.2,   -7.6,   -7.4,   -7.2,   -6.9,   -6.4,   -6.0,   -5.6,   -5.1,  999.0,  999.0,  999.0,  999.0,  999.0,  999.0,  999.0,  999.0,   -3.8,   -4.1,   -4.0,   -4.4,   -5.0,   -4.0,   -4.5
2000/11/27 13:10,   -6.3,   -6.3,   -6.9,   -7.0,   -7.2,   -7.2,   -7.4,   -7.0,   -6.8,   -6.9,   -6.8,   -6.6,   -6.5,   -6.4,   -6.3,   -6.3,   -6.4,   -6.4,   -6.4,   -6.5,   -6.6,   -6.7,   -6.8,   -6.9,   -7.0,   -7.0,   -6.8,   -7.1,   -7.1,   -7.1,   -7.1,   -7.0,   -7.1,   -7.2,   -7.4,   -7.3,   -7.2,   -7.0,   -6.8,   -6.7,   -6.1,   -5.8,   -5.5,   -5.1,   -5.0,   -4.9,   -4.9,   -4.9,   -4.8,   -4.9,   -5.0,   -4.7,   -4.4,   -4.4,   -4.4,  999.0,  999.0,  999.0
2000/11/27 13:20,   -4.9,   -4.8,   -4.8,   -4.8,   -4.7,   -4.6,   -4.8,   -4.8,   -4.7,   -4.9,   -5.1,   -5.5,   -5.4,   -5.4,   -5.3,   -5.4,   -5.5,   -5.5,   -5.0,   -5.1,   -5.1,   -5.2,   -5.1,   -5.1,   -5.2,   -5.1,   -5.2,   -5.2,   -4.9,   -4.7,  999.0,   -4.6,  999.0,  999.0,   -4.7,  999.0,  999.0,  999.0,  999.0,  999.0,  999.0,  999.0,  999.0,   -3.4,   -2.0,  999.0,  999.0,  999.0,  999.0,  999.0,   -3.4,  999.0,  999.0,  999.0,  999.0,  999.0,  999.0,   -3.7
2000/11/27 13:30,   -5.0,   -4.5,   -4.5,   -3.8,   -3.7,   -4.7,   -4.7,   -3.6,   -3.5,   -4.7,   -3.5,   -3.2,   -3.7,   -3.7,   -5.0,   -4.9,   -4.8,   -4.1,   -4.8,   -4.6,   -4.4,   -4.5,   -4.6,   -4.6,  999.0,  999.0,   -4.9,  999.0,  999.0,  999.0,  999.0,  999.0,  999.0,  999.0,   -5.5,  999.0,  999.0,  999.0,   -5.5,  999.0,  999.0,  999.0,  999.0,  999.0,  999.0,  999.0,   -5.5,  999.0,  999.0,   -5.4,   -5.6,   -5.6,   -1.8,    0.1,    5.5,   -1.9,   -5.6,   -1.8
2000/11/27 13:40,   -0.1,   -0.2,   -0.3,   -0.3,   -0.1,   -0.2,  999.0,   -0.6,   -0.6,  999.0,   -0.8,   -0.1,   -0.2,    0.0,    0.1,  999.0,  999.0,  999.0,  999.0,  999.0,  999.0,  999.0,  999.0,  999.0,  999.0,  999.0,  999.0,   -5.5,  999.0,    5.5,    1.8,   -5.5,   -5.5,   -5.5,  999.0,   -5.4,   -5.5,   -5.6,  999.0,   -5.4,   -5.6,   -5.4,   -5.5,  999.0,  999.0,  999.0,   -5.5,   -5.6,  999.0,   -5.5,  999.0,  999.0,   -5.6,   -5.6,    0.1,   -0.0,    0.0,    5.5
2000/11/27 13:50,   -0.1,   -0.1,   -0.1,   -0.3,   -0.3,   -0.1,   -0.1,   -0.0,   -0.1,   -0.7,    0.1,    0.1,  999.0,  999.0,   -5.5,   -5.5,   -5.3,  999.0,   -5.5,   -5.5,  999.0,   -5.5,   -5.6,   -5.5,   -5.5,   -5.6,   -5.5,   -5.5,   -5.5,   -5.4,   -5.5,   -5.6,   -5.6,   -5.6,   -5.5,   -5.5,   -5.6,   -5.5,   -5.5,   -5.5,   -5.5,   -5.5,   -5.5,   -5.4,   -5.4,   -5.6,   -5.5,   -5.5,   -5.6,   -5.6,   -5.5,   -5.6,   -5.5,   -5.6,   -5.6,   -5.6,   -5.6,  999.0
2000/11/27 14:00,  999.0,  999.0,    0.0,   -0.1,   -0.1,    0.2,    0.0,   -0.1,   -0.2,   -0.2,   -0.1,   -0.1,    0.1,  999.0,  999.0,  999.0,  999.0,  999.0,   -5.5,   -5.5,   -5.6,   -5.5,   -5.6,   -5.5,   -5.6,   -5.5,   -5.5,   -5.4,   -5.6,   -5.4,   -5.5,   -5.5,   -5.5,   -5.6,   -5.5,   -5.5,   -5.4,   -5.4,   -5.5,   -5.5,  999.0,   -5.5,   -5.5,   -5.5,   -5.5,   -5.5,  999.0,   -5.4,   -5.4,  999.0,   -5.5,   -5.5,   -5.4,   -5.3,   -5.5,  999.0,  999.0,  999.0
2000/11/27 14:10,  999.0,  999.0,    0.1,   -0.1,   -0.0,    0.0,    0.1,   -0.0,  999.0,   -0.1,   -0.1,   -0.0,    0.1,  999.0,  999.0,  999.0,  999.0,  999.0,   -5.5,   -5.5,   -5.5,    0.0,   -1.8,   -1.8,   -2.7,   -5.6,   -2.7,   -1.8,   -3.7,   -2.8,   -5.6,   -5.5,   -1.4,   -1.9,    1.8,   -4.1,   -5.5,   -2.8,   -2.8,   -5.5,   -3.7,   -1.8,  999.0,   -1.9,   -5.4,   -1.8,  999.0,  999.0,    0.0,  999.0,    0.1,  999.0,    0.1,    0.1,  999.0,  999.0,   -0.0,  999.0
2000/11/27 14:20,  999.0,  999.0,   -0.2,   -0.2,    0.1,    0.1,  999.0,   -0.1,    0.0,    0.0,   -0.1,   -0.1,    0.0,  999.0,   -0.0,   -0.0,  999.0,  999.0,  999.0,  999.0,  999.0,  999.0,  999.0,  999.0,  999.0,  999.0,  999.0,    5.6,    0.0,    0.1,    5.6,   -5.4,  999.0,  999.0,   -0.0,   -0.1,    0.0,    0.0,   -5.4,   -5.6,   -0.0,    0.0,   -5.5,    5.5,    5.6,    5.5,    5.4,    3.6,    5.5,    5.6,    5.6,    5.5,    5.5,    5.5,    5.5,    5.5,    5.5,    5.5
2000/11/27 14:30,  999.0,   -0.2,   -0.0,   -0.2,    0.2,    0.0,   -0.2,    0.0,  999.0,   -0.1,    0.1,    0.3,   -0.1,  999.0,    0.1,   -0.1,  999.0,  999.0,  999.0,  999.0,  999.0,  999.0,  999.0,  999.0,  999.0,  999.0,  999.0,  999.0,  999.0,  999.0,  999.0,   -5.4,   -0.1,    5.5,    5.6,    0.0,  999.0,    5.5,    5.6,    5.5,    5.4,  999.0,  999.0,  999.0,    5.7,    5.6,    5.4,    5.5,    5.6,    5.5,    5.5,    5.6,    5.6,    5.6,    5.5,    5.5,    5.5,    5.5
2000/11/27 14:40,   -2.8,    0.1,    0.0,   -0.1,    0.0,    0.0,    0.2,   -0.0,    0.1,   -0.3,    0.1,    0.1,   -0.2,   -0.0,   -0.1,   -0.1,  999.0,  999.0,  999.0,  999.0,  999.0,  999.0,  999.0,  999.0,    5.5,  999.0,    5.4,    5.5,    5.5,    5.5,    5.5,    5.4,    5.6,    5.5,    5.5,    5.4,    5.5,    5.5,    5.5,    5.4,    5.6,    5.5,    5.6,    5.5,    5.6,    5.5,    5.5,    5.4,    5.5,  999.0,    5.5,    5.6,    5.5,    5.5,    5.5,    5.5,    5.5,    5.6
2000/11/27 14:50,  999.0,  999.0,  999.0,   -0.3,   -0.1,    0.0,   -0.0,    0.2,   -0.1,   -0.2,   -0.2,    0.1,   -0.1,  999.0,    0.1,   -0.0,  999.0,  999.0,  999.0,  999.0,  999.0,  999.0,  999.0,    5.4,    5.6,    5.4,    5.4,    5.6,    5.6,    5.5,    5.5,    5.5,    5.6,    5.5,    5.5,    5.5,    5.6,    5.5,    5.5,    5.5,    5.5,    5.5,    5.4,    5.6,    5.5,    5.5,    5.6,    5.5,    5.4,    5.4,    5.6,    5.5,    5.5,    5.5,    5.5,    5.5,    5.6,    5.5
2000/11/27 15:00,   -5.5,  999.0,  999.0,   -0.1,    0.2,   -0.0,  999.0,   -0.2,    0.1,   -0.0,    0.0,   -0.2,   -0.1,  999.0,   -0.0,   -0.1,  999.0,  999.0,  999.0,  999.0,  999.0,  999.0,    5.6,    5.5,    5.5,    5.5,    5.5,    5.5,    5.5,    5.5,    5.4,    5.5,    5.5,    5.5,    5.5,    5.6,    5.5,    5.6,    5.5,    5.5,    5.5,    5.5,    5.5,    5.5,    5.5,    5.5,    5.4,    5.5,    5.5,    5.6,    5.5,    5.5,    5.6,    5.5,    5.4,    5.5,    5.5,    5.5
2000/11/27 15:10,  999.0,  999.0,    0.1,   -0.1,    0.2,    0.1,   -0.0,   -0.0,    0.1,   -0.1,    0.0,    0.1,   -0.2,  999.0,    0.1,    0.0,  999.0,  999.0,  999.0,  999.0,  999.0,    5.4,  999.0,    5.3,    5.6,    5.4,    5.4,    5.5,    5.5,    5.6,    5.5,    5.5,    5.5,    5.5,    5.4,    5.5,    5.4,    5.6,    5.5,    5.4,    5.5,    5.5,    5.4,    5.6,    5.5,    5.5,    5.5,    5.5,    5.4,    5.4,    5.5,    5.5,    5.5,    5.4,    5.5,    5.5,    5.5,    5.5
2000/11/27 15:20,   -5.5,  999.0,    0.1,   -0.1,    0.2,    0.1,   -0.0,    0.0,    0.1,    0.0,    0.1,    0.1,    0.0,  999.0,    0.1,   -0.4,  999.0,  999.0,  999.0,  999.0,  999.0,    5.5,    5.5,    5.6,    5.5,    5.5,    5.5,    5.5,  999.0,    5.6,    5.5,    5.5,    5.5,    5.5,    5.5,    5.4,    5.5,    5.5,    5.5,    5.5,    5.5,    5.5,    5.6,    5.5,    5.5,    5.5,    5.4,    5.5,    5.6,    5.5,    5.5,    5.5,    5.5,  999.0,    5.5,    5.5,    5.4,    5.5
2000/11/27 15:30,   -5.4,  999.0,  999.0,    0.0,    0.0,    0.1,  999.0,    0.1,   -0.0,   -0.0,    0.1,    0.1,    0.0,  999.0,    0.2,  999.0,  999.0,  999.0,  999.0,  999.0,  999.0,    5.4,    5.4,    5.5,    5.5,    5.5,    5.4,    5.6,    5.4,    5.5,    5.5,    5.5,    5.4,    5.5,    5.5,    5.5,    5.5,    5.6,    5.4,    5.5,    5.5,    5.5,    5.5,    5.5,    5.5,    5.5,    5.5,    5.4,    5.5,    5.4,    5.5,    5.5,    5.5,    5.5,    5.5,    5.5,    5.5,    5.5
2000/11/27 15:40,   -5.5,  999.0,   -0.1,   -0.1,    0.2,    0.1,    0.1,   -0.1,   -0.3,   -0.2,    0.0,  999.0,    0.0,  999.0,    0.1,   -0.0,  999.0,  999.0,  999.0,  999.0,  999.0,    5.4,    5.4,    5.4,    5.5,    5.5,    5.4,    5.5,    5.5,    5.5,    5.5,    5.6,    5.4,    5.4,    5.5,    5.6,    5.5,    5.5,    5.4,    5.5,    5.5,    5.5,    5.5,    5.4,    5.7,    5.5,  999.0,    5.5,    5.7,    5.4,    5.5,    5.5,    5.6,    5.4,    5.5,    5.5,    5.5,    5.7
2000/11/27 15:50,  999.0,  999.0,    0.0,   -0.2,    0.1,    0.1,   -0.0,   -0.1,   -0.0,   -0.0,    0.1,    0.1,   -0.0,  999.0,    0.1,  999.0,  999.0,  999.0,  999.0,  999.0,  999.0,    5.5,    5.5,  999.0,    5.6,    5.5,    5.5,    5.6,    5.5,    5.5,    5.5,    5.5,    5.5,    5.5,    5.5,    5.4,    5.5,    5.5,    5.5,    5.5,    5.6,    5.4,    5.5,    5.5,    5.4,    5.5,    5.5,    5.5,    5.5,    5.5,    5.5,    5.5,    5.5,    5.6,    5.5,    5.5,    5.6,    5.5
2000/11/27 16:00,    0.1,    0.1,   -0.0,   -0.2,   -0.1,    0.1,   -0.2,    0.1,   -0.1,   -0.1,   -0.0,    0.2,    0.0,  999.0,   -0.0,  999.0,  999.0,  999.0,  999.0,  999.0,  999.0,  999.0,  999.0,    5.5,  999.0,    5.6,    5.5,    5.5,    5.5,    5.5,    5.5,    5.5,    5.5,    5.5,    5.5,    5.6,    5.5,    5.5,    5.5,    5.6,    5.4,    5.5,  999.0,    5.6,    5.5,    5.6,    5.5,  999.0,    5.4,    5.5,    5.5,    5.4,    5.6,    5.5,    5.5,    5.6,    5.5,    5.5
2000/11/27 16:10,    0.0,  999.0,   -0.2,    0.0,    0.1,    0.1,  999.0,   -0.0,   -0.0,   -0.2,    0.0,    0.0,    0.1,  999.0,    0.1,  999.0,  999.0,  999.0,  999.0,  999.0,  999.0,  999.0,    5.5,    5.5,  999.0,    5.4,    5.5,    5.5,    5.5,    5.6,    5.5,    5.5,    5.5,    5.4,    5.6,    5.6,    5.4,    5.6,    5.5,    5.5,    5.6,  999.0,    5.5,    5.5,    5.5,    5.4,  999.0,    5.6,    5.5,    5.5,    5.5,    5.5,  999.0,    5.5,  999.0,    5.5,    5.6,    5.5
2000/11/27 16:20,  999.0,   -0.4,   -0.7,   -0.2,   -0.4,   -0.1,    0.1,    0.1,   -0.1,   -0.3,   -0.3,   -0.0,   -0.1,    0.4,    0.1,   -0.1,  999.0,  999.0,  999.0,  999.0,  999.0,   -5.4,   -5.5,  999.0,   -5.5,   -0.0,   -1.8,   -5.5,   -5.5,   -5.6,    5.5,    0.0,    5.4,  999.0,    0.0,  999.0,  999.0,   -0.0,   -5.5,    0.0,   -5.6,    5.6,   -1.9,    0.0,   -5.5,    5.5,   -5.6,    0.0,  999.0,    0.0,   -1.8,    0.1,   -0.0,    5.4,    0.0,   -5.4,    0.1,    5.2
2000/11/27 16:30,    0.0,   -0.4,   -0.3,   -0.8,   -0.4,   -0.2,   -0.5,   -0.5,   -0.9,   -1.3,   -0.8,   -0.5,  999.0,  999.0,   -0.1,   -0.0,   -4.9,   -4.8,   -4.4,   -4.4,   -4.4,   -4.1,   -4.8,   -3.9,   -3.1,   -5.5,   -5.6,  999.0,   -5.4,   -5.5,   -5.6,   -5.6,   -5.7,   -5.4,   -5.5,   -5.5,  999.0,   -5.3,   -5.5,   -5.2,   -5.5,   -2.8,   -1.9,    0.0,    1.8,    0.1,    2.7,    1.9,   -5.5,    5.5,   -5.5,    1.8,    0.1,    5.6,   -1.8,   -5.6,  999.0,   -1.9
2000/11/27 16:40,   -6.0,   -5.8,   -5.1,   -5.1,   -6.7,   -6.6,   -6.5,   -6.3,   -6.4,   -6.4,   -6.1,   -6.1,   -6.0,   -6.1,   -5.4,   -4.0,   -3.8,   -5.9,   -5.5,   -4.2,   -4.7,   -5.0,   -5.0,   -4.2,   -4.4,   -4.2,   -4.2,   -3.9,   -4.8,   -5.1,   -4.7,   -4.9,  999.0,   -5.6,   -5.4,   -6.3,   -5.6,   -5.0,   -3.6,   -5.3,   -4.5,   -4.4,   -4.5,   -4.1,   -4.0,   -5.4,   -5.5,   -5.5,  999.0,   -5.5,  999.0,   -5.5,   -5.6,   -5.5,  999.0,   -5.6,   -5.4,   -5.4
2000/11/27 16:50,   -6.5,   -6.6,   -5.6,   -6.3,   -7.2,   -5.9,   -5.9,   -5.6,   -6.1,   -6.3,   -5.8,   -5.8,   -5.7,   -5.6,   -5.5,   -5.2,   -5.1,   -5.5,   -6.8,   -6.4,   -5.3,   -5.7,   -5.7,   -5.5,   -6.1,   -5.8,   -5.6,   -5.5,   -4.6,   -5.2,   -4.7,   -4.2,   -4.7,   -4.8,   -4.2,   -4.8,   -5.4,   -3.1,   -1.6,  999.0,   -0.3,   -0.3,   -0.8,   -0.9,   -0.1,   -4.9,   -4.6,  999.0,  999.0,  999.0,  999.0,  999.0,  999.0,  999.0,  999.0,  999.0,  999.0,  999.0
2000/11/27 17:00,   -3.5,   -4.2,   -4.2,   -3.7,   -3.8,   -3.9,   -3.8,   -3.9,   -4.0,   -3.7,   -4.4,   -4.2,   -4.1,   -4.8,   -4.6,   -4.1,   -4.6,   -4.0,   -4.6,   -3.9,   -5.1,   -5.5,   -5.4,   -5.5,   -5.5,   -5.6,   -5.4,   -5.3,   -5.3,   -5.2,   -5.5,   -5.1,   -5.4,   -5.4,   -5.2,   -5.4,   -5.3,   -5.3,   -5.3,   -5.1,   -4.7,  999.0,  999.0,   -5.5,   -5.5,   -5.5,   -5.5,   -5.5,   -5.5,   -5.5,   -5.6,   -5.5,   -5.5,   -5.3,  999.0,  999.0,   -5.5,   -5.5
2000/11/27 17:10,   -5.6,   -5.7,   -5.6,   -5.5,   -5.5,   -5.3,   -5.2,   -5.3,   -5.3,   -5.4,   -5.4,   -5.2,   -5.0,   -5.0,   -5.0,   -4.9,   -4.9,   -4.7,   -4.6,   -4.4,   -4.3,   -4.3,   -4.2,   -4.4,   -4.2,   -4.5,   -4.6,   -4.4,   -4.3,   -4.6,   -4.3,   -4.1,   -4.3,   -3.8,   -3.7,   -4.4,   -3.7,   -3.3,   -3.6,   -3.1,   -2.8,  999.0,  999.0,  999.0,  999.0,  999.0,  999.0,   -5.6,  999.0,   -5.6,  999.0,  999.0,  999.0,  999.0,  999.0,  999.0,  999.0,   -5.4
2000/11/27 17:20,   -3.6,   -3.3,   -2.6,   -3.3,   -2.4,   -4.5,   -3.0,   -2.3,   -4.6,   -3.3,   -4.8,   -3.3,   -4.4,   -4.2,   -4.2,   -4.2,   -4.3,   -4.4,   -4.2,   -4.2,   -4.2,   -4.3,   -4.3,   -4.2,   -4.2,   -4.2,   -4.1,   -4.8,   -4.0,   -4.1,   -4.1,   -5.0,   -5.0,   -5.1,   -4.7,   -4.9,   -4.5,   -4.7,  999.0,   -4.2,  999.0,  999.0,  999.0,  999.0,  999.0,   -5.4,   -5.6,   -5.5,   -5.4,  999.0,  999.0,  999.0,   -5.5,   -5.4,  999.0,   -5.4,   -5.6,  999.0
2000/11/27 17:30,   -0.1,   -0.1,   -0.0,    0.0,   -0.1,   -0.0,   -0.2,   -0.2,  999.0,    0.0,   -0.1,    0.0,    0.1,  999.0,    0.1,  999.0,  999.0,  999.0,  999.0,  999.0,  999.0,  999.0,  999.0,  999.0,  999.0,  999.0,  999.0,  999.0,  999.0,  999.0,  999.0,  999.0,  999.0,  999.0,  999.0,  999.0,  999.0,  999.0,  999.0,  999.0,  999.0,  999.0,  999.0,  999.0,    5.3,  999.0,  999.0,  999.0,  999.0,  999.0,  999.0,  999.0,  999.0,  999.0,  999.0,    5.6,  999.0,  999.0
2000/11/27 17:40,   -0.0,  999.0,   -0.0,   -0.1,   -0.2,   -0.1,   -0.1,   -0.1,  999.0,    0.1,   -0.0,   -0.0,   -0.1,  999.0,   -0.1,    0.0,  999.0,    0.1,  999.0,  999.0,  999.0,  999.0,  999.0,  999.0,  999.0,  999.0,  999.0,  999.0,  999.0,  999.0,  999.0,  999.0,  999.0,  999.0,  999.0,  999.0,  999.0,    5.6,    5.5,    5.7,    5.5,  999.0,    5.6,    5.5,    5.5,    5.5,  999.0,    5.4,    5.5,    5.5,    5.6,    5.5,    5.5,    5.6,    5.5,    5.5,    5.7,    5.5
2000/11/27 17:50,    0.0,    0.1,   -0.1,   -0.2,    0.0,    0.0,   -0.1,   -0.0,  999.0,   -0.0,   -0.1,   -0.0,  999.0,  999.0,    0.1,  999.0,  999.0,  999.0,  999.0,  999.0,  999.0,  999.0,  999.0,  999.0,  999.0,  999.0,  999.0,  999.0,  999.0,  999.0,  999.0,  999.0,  999.0,  999.0,  999.0,  999.0,  999.0,    5.4,  999.0,    5.5,  999.0,    5.5,    5.4,  999.0,    5.5,    5.4,    5.4,    5.5,    5.5,  999.0,  999.0,    5.5,    5.6,  999.0,    5.5,    5.5,  999.0,    5.5
2000/11/27 18:00,   -0.1,   -0.2,   -0.2,   -0.1,   -0.1,   -0.1,   -0.3,   -0.2,  999.0,   -0.1,   -0.0,    0.1,    0.1,  999.0,    0.1,    0.0,  999.0,  999.0,  999.0,  999.0,  999.0,  999.0,  999.0,  999.0,  999.0,  999.0,  999.0,    3.4,  999.0,  999.0,  999.0,  999.0,  999.0,  999.0,  999.0,  999.0,    5.5,    5.5,    5.5,    5.7,    5.5,    5.5,    5.6,    5.4,    5.7,  999.0,  999.0,    5.7,    5.4,    5.5,    5.7,    5.4,    5.5,    5.5,    5.4,    5.7,    5.4,    5.5
2000/11/27 18:10,   -0.0,    0.2,    0.1,   -0.1,   -0.1,   -0.1,    0.1,   -0.1,  999.0,    0.1,    0.0,   -0.1,   -0.1,  999.0,    0.0,    0.0,  999.0,  999.0,  999.0,  999.0,  999.0,  999.0,  999.0,  999.0,  999.0,  999.0,  999.0,  999.0,  999.0,  999.0,  999.0,  999.0,  999.0,  999.0,  999.0,    5.4,    5.6,  999.0,    5.6,    5.5,  999.0,    5.4,    5.5,    5.5,    5.4,    5.4,    5.4,    5.4,  999.0,    5.6,  999.0,    5.5,    5.5,  999.0,  999.0,    5.5,    5.5,    5.5
2000/11/27 18:20,   -0.2,  999.0,   -0.1,   -0.1,   -0.1,   -0.0,   -0.1,   -0.0,    0.6,    0.1,  999.0,    0.1,    0.0,   -0.0,    0.1,   -0.1,    0.1,    0.1,  999.0,  999.0,  999.0,  999.0,  999.0,  999.0,  999.0,  999.0,  999.0,  999.0,  999.0,  999.0,  999.0,  999.0,  999.0,    4.4,  999.0,    5.5,    5.4,    5.5,    5.6,    5.5,    5.5,    5.5,    5.5,    5.5,    5.5,    5.6,    5.6,  999.0,    5.5,  999.0,  999.0,  999.0,    5.5,    5.6,    5.5,    5.7,    5.5,  999.0
2000/11/27 18:30,  999.0,  999.0,  999.0,   -0.1,    0.1,   -0.1,    0.2,    0.3,   -0.4,   -0.1,   -0.3,   -0.0,    0.1,  999.0,    0.1,    0.3,  999.0,    0.0,  999.0,  999.0,  999.0,  999.0,  999.0,  999.0,  999.0,  999.0,  999.0,  999.0,  999.0,  999.0,  999.0,  999.0,  999.0,  999.0,  999.0,  999.0,    5.6,  999.0,  999.0,    5.6,    5.5,    5.4,    5.6,  999.0,    5.6,    5.6,    5.5,  999.0,    5.6,    5.6,  999.0,    5.5,    5.5,    5.5,    5.6,    5.5,    5.3,    5.5
2000/11/27 18:40,  999.0,  999.0,  999.0,  999.0,  999.0,    0.6,  999.0,    0.2,    0.2,    0.1,    0.0,    0.1,    0.1,  999.0,    0.0,    0.0,  999.0,    0.0,  999.0,  999.0,  999.0,  999.0,  999.0,  999.0,  999.0,  999.0,  999.0,  999.0,  999.0,  999.0,  999.0,  999.0,  999.0,  999.0,  999.0,  999.0,    5.5,  999.0,    5.5,    5.5,  999.0,  999.0,  999.0,  999.0,  999.0,  999.0,  999.0,  999.0,  999.0,  999.0,  999.0,  999.0,  999.0,  999.0,  999.0,  999.0,  999.0,  999.0
2000/11/27 18:50,    0.6,    0.9,    0.6,    0.6,    1.0,    1.0,    0.6,    0.7,    0.5,    0.5,    0.7,    0.9,    0.5,  999.0,    0.3,  999.0,  999.0,    0.1,  999.0,  999.0,  999.0,  999.0,  999.0,  999.0,  999.0,  999.0,  999.0,  999.0,  999.0,  999.0,  999.0,  999.0,  999.0,  999.0,  999.0,  999.0,  999.0,  999.0,  999.0,  999.0,  999.0,  999.0,  999.0,  999.0,  999.0,  999.0,  999.0,  999.0,  999.0,  999.0,  999.0,  999.0,  999.0,  999.0,  999.0,  999.0,  999.0,  999.0
2000/11/27 19:00,    0.2,    0.6,    0.4,    0.4,    0.6,    0.8,    0.7,    0.9,    0.6,    0.2,    0.6,    0.6,    0.4,    0.4,    0.6,  999.0,    0.1,   -0.1,  999.0,  999.0,   -0.2,   -0.2,  999.0,  999.0,  999.0,  999.0,  999.0,  999.0,  999.0,  999.0,  999.0,  999.0,  999.0,  999.0,  999.0,  999.0,  999.0,  999.0,  999.0,  999.0,  999.0,  999.0,  999.0,  999.0,  999.0,  999.0,  999.0,  999.0,  999.0,  999.0,  999.0,  999.0,  999.0,  999.0,  999.0,  999.0,  999.0,  999.0
2000/11/27 19:10,    1.3,    1.0,    1.2,    1.2,    0.6,    0.8,    0.8,    0.9,    0.9,    0.6,    0.7,    0.7,    0.6,    0.4,    0.3,    0.3,    0.5,    0.1,  999.0,  999.0,  999.0,  999.0,  999.0,  999.0,  999.0,  999.0,    0.2,  999.0,  999.0,  999.0,  999.0,  999.0,  999.0,  999.0,  999.0,  999.0,  999.0,  999.0,  999.0,  999.0,  999.0,  999.0,  999.0,  999.0,  999.0,  999.0,  999.0,  999.0,  999.0,  999.0,  999.0,  999.0,  999.0,  999.0,  999.0,  999.0,  999.0,  999.0
2000/11/27 19:20,    0.4,    0.3,    0.5,    0.5,    0.1,    0.3,    0.3,    0.6,    0.6,   -0.7,   -0.3,   -0.2,   -0.4,    0.0,    0.4,    0.4,    0.5,    0.3,    0.2,    0.7,    0.6,    0.1,    0.8,  999.0,  999.0,  999.0,  999.0,  999.0,  999.0,  999.0,  999.0,  999.0,  999.0,  999.0,  999.0,  999.0,  999.0,  999.0,    0.2,  999.0,  999.0,  999.0,  999.0,  999.0,  999.0,  999.0,  999.0,  999.0,  999.0,  999.0,  999.0,  999.0,  999.0,  999.0,  999.0,  999.0,  999.0,  999.0
2000/11/27 19:30,    0.1,    0.2,    0.1,    0.2,    0.7,    0.2,   -0.1,   -0.4,    0.3,    0.2,    0.0,    0.1,   -0.4,    0.4,   -0.3,   -1.0,   -0.2,  999.0,   -0.4,    0.1,    0.2,   -0.3,  999.0,  999.0,  999.0,    0.1,  999.0,  999.0,  999.0,  999.0,  999.0,  999.0,  999.0,  999.0,  999.0,  999.0,  999.0,  999.0,  999.0,  999.0,  999.0,  999.0,  999.0,  999.0,  999.0,  999.0,  999.0,  999.0,  999.0,  999.0,  999.0,  999.0,  999.0,  999.0,  999.0,  999.0,  999.0,  999.0
2000/11/27 19:40,   -0.8,    0.0,   -0.0,   -0.0,    0.6,    0.5,   -0.7,   -0.5,   -0.3,    0.4,    0.4,    0.7,   -0.7,    0.2,   -0.6,   -0.8,   -0.5,   -0.7,   -0.9,    0.3,    0.4,    0.4,  999.0,  999.0,  999.0,    0.3,  999.0,  999.0,  999.0,  999.0,  999.0,  999.0,  999.0,  999.0,  999.0,  999.0,  999.0,  999.0,  999.0,  999.0,  999.0,  999.0,  999.0,  999.0,    0.5,  999.0,  999.0,  999.0,  999.0,    0.4,  999.0,  999.0,  999.0,  999.0,    0.2,  999.0,  999.0,    0.6
2000/11/27 19:50,    1.2,  999.0,   -0.2,    0.1,  999.0,    0.0,   -0.7,   -0.8,    0.0,    0.3,    0.1,   -0.2,    0.3,    0.1,   -0.1,   -0.2,   -0.1,   -0.9,  999.0,  999.0,  999.0,  999.0,  999.0,  999.0,  999.0,  999.0,  999.0,  999.0,  999.0,  999.0,  999.0,  999.0,  999.0,  999.0,  999.0,  999.0,  999.0,  999.0,  999.0,  999.0,  999.0,  999.0,  999.0,  999.0,  999.0,  999.0,  999.0,  999.0,  999.0,  999.0,  999.0,  999.0,  999.0,  999.0,  999.0,  999.0,  999.0,  999.0
2000/11/27 20:00,    0.3,   -1.0,   -0.6,    0.3,   -0.4,   -0.7,   -0.1,   -0.2,  999.0,  999.0,    0.2,    0.1,    0.1,    0.4,    0.0,  999.0,  999.0,   -0.0,  999.0,  999.0,  999.0,  999.0,  999.0,  999.0,  999.0,  999.0,  999.0,  999.0,  999.0,  999.0,  999.0,  999.0,  999.0,  999.0,  999.0,  999.0,  999.0,  999.0,  999.0,   -0.1,  999.0,  999.0,  999.0,  999.0,  999.0,  999.0,  999.0,  999.0,  999.0,  999.0,  999.0,  999.0,    0.1,    0.1,  999.0,  999.0,  999.0,  999.0
2000/11/27 20:10,    0.1,   -0.3,    0.5,    0.2,   -0.1,    0.1,   -0.0,    0.0,    0.5,   -0.6,   -0.8,    0.2,   -0.0,   -0.3,    0.2,   -0.3,   -1.1,    0.1,  999.0,  999.0,    0.4,  999.0,    1.5,    1.7,  999.0,  999.0,  999.0,  999.0,  999.0,  999.0,  999.0,  999.0,  999.0,  999.0,  999.0,  999.0,  999.0,  999.0,    0.1,    0.0,  999.0,  999.0,  999.0,  999.0,  999.0,  999.0,  999.0,  999.0,  999.0,  999.0,  999.0,  999.0,  999.0,  999.0,  999.0,  999.0,  999.0,  999.0
2000/11/27 20:20,    0.1,  999.0,    0.6,    0.1,    0.2,    0.2,    0.1,    0.9,    0.2,   -0.2,    0.3,    0.0,    0.0,  999.0,    0.1,    0.0,  999.0,  999.0,  999.0,  999.0,  999.0,  999.0,  999.0,  999.0,  999.0,  999.0,  999.0,  999.0,  999.0,  999.0,  999.0,  999.0,  999.0,  999.0,  999.0,  999.0,  999.0,  999.0,  999.0,  999.0,  999.0,  999.0,  999.0,  999.0,  999.0,  999.0,  999.0,  999.0,  999.0,  999.0,  999.0,  999.0,  999.0,  999.0,  999.0,  999.0,  999.0,  999.0
2000/11/27 20:30,   -0.4,    1.1,    0.7,   -0.2,   -0.0,   -0.0,    0.7,    0.2,   -0.2,   -0.0,   -0.0,    0.1,    0.1,  999.0,    0.1,    0.1,  999.0,  999.0,  999.0,  999.0,    0.1,  999.0,  999.0,  999.0,  999.0,  999.0,  999.0,  999.0,  999.0,  999.0,  999.0,  999.0,  999.0,  999.0,  999.0,  999.0,  999.0,  999.0,  999.0,  999.0,  999.0,  999.0,  999.0,  999.0,  999.0,  999.0,  999.0,  999.0,  999.0,  999.0,  999.0,  999.0,  999.0,  999.0,  999.0,  999.0,  999.0,  999.0
2000/11/27 20:40,    0.2,    0.3,   -0.2,    0.3,   -0.2,    0.0,    1.2,    0.4,   -0.0,   -0.3,    0.4,    0.4,   -0.1,   -0.1,   -0.2,   -0.4,   -0.4,  999.0,  999.0,  999.0,  999.0,  999.0,  999.0,  999.0,  999.0,  999.0,  999.0,  999.0,  999.0,  999.0,  999.0,  999.0,  999.0,  999.0,  999.0,  999.0,  999.0,  999.0,  999.0,  999.0,  999.0,  999.0,  999.0,  999.0,  999.0,  999.0,  999.0,  999.0,  999.0,  999.0,  999.0,  999.0,  999.0,  999.0,  999.0,  999.0,  999.0,  999.0
2000/11/27 20:50,    0.4,    0.2,    0.3,    0.3,    0.5,   -0.9,    0.2,   -0.1,    0.0,    0.1,    0.4,   -0.0,   -0.1,    0.4,    0.1,   -0.1,   -0.1,   -0.2,  999.0,  999.0,  999.0,  999.0,  999.0,  999.0,  999.0,  999.0,  999.0,  999.0,  999.0,  999.0,  999.0,  999.0,  999.0,  999.0,  999.0,  999.0,  999.0,  999.0,   -0.7,  999.0,  999.0,  999.0,  999.0,  999.0,  999.0,  999.0,  999.0,  999.0,  999.0,  999.0,  999.0,  999.0,  999.0,  999.0,  999.0,  999.0,  999.0,  999.0
2000/11/27 21:00,   -0.2,   -0.2,   -0.7,    0.1,    0.2,    0.1,    0.1,   -0.1,    0.2,   -0.0,    0.3,    0.0,    0.2,    0.2,   -0.0,   -0.2,  999.0,  999.0,  999.0,  999.0,  999.0,  999.0,  999.0,  999.0,  999.0,  999.0,  999.0,  999.0,  999.0,  999.0,  999.0,  999.0,  999.0,  999.0,  999.0,  999.0,  999.0,  999.0,  999.0,  999.0,  999.0,  999.0,  999.0,  999.0,  999.0,  999.0,  999.0,  999.0,  999.0,  999.0,  999.0,  999.0,  999.0,  999.0,  999.0,  999.0,  999.0,  999.0
2000/11/27 21:10,    0.3,    0.3,    0.9,    0.8,    1.0,    0.8,   -0.9,    0.0,   -0.0,   -0.1,  999.0,    0.1,  999.0,  999.0,    0.1,   -0.1,  999.0,   -0.1,   -0.1,  999.0,    0.1,  999.0,  999.0,  999.0,  999.0,   -0.2,  999.0,  999.0,  999.0,  999.0,  999.0,  999.0,  999.0,    0.1,  999.0,  999.0,  999.0,  999.0,  999.0,  999.0,  999.0,  999.0,  999.0,  999.0,  999.0,  999.0,  999.0,  999.0,  999.0,  999.0,  999.0,  999.0,  999.0,  999.0,  999.0,  999.0,  999.0,  999.0
2000/11/27 21:20,    0.2,    0.7,    0.9,    0.7,    0.2,    0.1,    0.2,    0.5,    0.1,   -0.0,    0.4,    0.0,    0.1,    0.5,    0.1,  999.0,  999.0,    0.0,  999.0,   -0.4,   -0.1,  999.0,  999.0,  999.0,  999.0,  999.0,  999.0,  999.0,  999.0,  999.0,  999.0,  999.0,  999.0,  999.0,  999.0,  999.0,  999.0,  999.0,  999.0,  999.0,    0.7,  999.0,  999.0,   -0.2,  999.0,  999.0,  999.0,  999.0,  999.0,  999.0,  999.0,  999.0,  999.0,  999.0,  999.0,  999.0,   -0.1,  999.0
2000/11/27 21:30,    0.1,    0.8,    0.3,   -0.2,    0.2,   -0.1,   -0.1,    0.5,  999.0,   -0.7,    0.0,    0.1,    0.1,  999.0,    0.1,    1.1,  999.0,    0.2,  999.0,  999.0,  999.0,  999.0,  999.0,  999.0,  999.0,  999.0,   -0.1,  999.0,  999.0,  999.0,  999.0,  999.0,  999.0,  999.0,  999.0,  999.0,  999.0,  999.0,  999.0,  999.0,  999.0,  999.0,  999.0,   -0.0,  999.0,  999.0,  999.0,  999.0,  999.0,  999.0,  999.0,  999.0,  999.0,  999.0,  999.0,  999.0,  999.0,  999.0
2000/11/27 21:40,   -0.2,   -0.0,   -0.0,   -0.1,    0.2,    0.0,    0.3,    0.3,    0.1,   -0.3,   -0.1,    0.3,    0.2,  999.0,    0.3,   -0.0,    0.1,  999.0,  999.0,  999.0,  999.0,  999.0,  999.0,  999.0,  999.0,  999.0,    0.1,  999.0,  999.0,  999.0,  999.0,  999.0,  999.0,  999.0,  999.0,  999.0,   -0.7,  999.0,  999.0,  999.0,  999.0,  999.0,  999.0,  999.0,  999.0,  999.0,  999.0,   -5.4,   -5.4,  999.0,   -5.4,   -5.4,  999.0,  999.0,   -5.5,   -5.5,   -5.5,   -5.5
2000/11/27 21:50,    0.3,    0.3,    0.5,   -0.1,    0.2,    0.5,   -1.1,   -0.8,    0.2,   -0.4,    0.1,   -0.1,  999.0,  999.0,    0.1,   -0.0,  999.0,    0.3,  999.0,  999.0,  999.0,  999.0,  999.0,  999.0,  999.0,  999.0,  999.0,  999.0,  999.0,  999.0,  999.0,  999.0,  999.0,  999.0,  999.0,  999.0,    2.4,    5.5,  999.0,  999.0,  999.0,    5.5,  999.0,  999.0,   -4.9,  999.0,  999.0,   -5.4,   -0.1,   -1.8,   -0.0,   -5.6,   -1.8,   -5.5,   -5.5,   -5.5,   -5.5,   -5.6
2000/11/27 22:00,    0.3,  999.0,    0.3,    0.2,    0.1,   -0.3,   -0.1,  999.0,    0.5,   -0.3,   -0.3,    0.4,   -0.3,  999.0,    0.1,   -0.1,  999.0,   -0.0,  999.0,  999.0,  999.0,  999.0,  999.0,  999.0,  999.0,  999.0,  999.0,  999.0,  999.0,  999.0,  999.0,  999.0,  999.0,  999.0,  999.0,  999.0,  999.0,  999.0,  999.0,  999.0,  999.0,  999.0,  999.0,   -5.6,   -5.5,   -5.7,   -5.4,   -5.5,  999.0,  999.0,   -5.4,   -5.5,   -5.5,   -5.5,   -5.6,   -5.4,   -5.4,  999.0
2000/11/27 22:10,   -0.6,   -1.0,   -0.6,  999.0,    0.1,    0.1,   -0.8,  999.0,   -0.5,   -0.6,  999.0,   -0.7,   -2.3,   -0.0,    0.1,  999.0,  999.0,   -0.0,  999.0,  999.0,  999.0,    0.1,  999.0,  999.0,   -1.3,  999.0,  999.0,  999.0,  999.0,  999.0,  999.0,  999.0,  999.0,  999.0,  999.0,  999.0,  999.0,  999.0,   -5.5,   -5.5,   -5.5,   -5.6,   -5.6,   -5.5,   -5.5,   -5.5,   -5.5,   -5.5,   -5.4,   -5.7,   -5.4,   -5.6,   -5.4,   -5.5,   -5.6,   -5.4,   -5.4,  999.0
2000/11/27 22:20,   -0.3,  999.0,    1.1,   -0.1,   -0.1,    0.3,    0.3,    1.0,   -0.2,    0.0,    0.9,    0.1,   -0.3,  999.0,    0.1,    0.1,  999.0,   -0.1,  999.0,  999.0,  999.0,  999.0,  999.0,  999.0,  999.0,    5.5,    5.5,  999.0,    5.5,    5.6,    5.5,  999.0,    5.6,    5.6,    5.5,  999.0,  999.0,  999.0,    5.6,   -5.5,    0.1,   -5.5,   -0.0,   -1.8,   -0.1,   -5.5,   -5.5,   -5.7,   -5.6,   -5.5,   -5.4,   -5.5,   -5.4,   -0.0,   -5.5,   -5.4,   -5.6,   -5.6
2000/11/27 22:30,   -0.1,    0.3,    0.7,    0.1,    0.1,   -0.4,   -0.3,   -0.7,    0.4,   -0.1,   -0.9,   -2.2,   -1.2,    0.7,    0.4,    0.3,  999.0,    0.3,  999.0,  999.0,  999.0,  999.0,   -5.3,  999.0,  999.0,   -4.9,   -5.5,   -5.4,   -5.4,   -5.5,   -5.5,  999.0,   -5.4,   -5.5,   -5.5,   -5.5,  999.0,  999.0,   -5.3,   -5.5,   -5.5,   -5.6,   -5.4,   -5.3,   -5.6,  999.0,   -5.7,   -5.6,   -5.6,  999.0,  999.0,   -5.5,  999.0,   -5.5,   -5.5,   -5.4,   -5.5,   -5.4
2000/11/27 22:40,   -0.2,   -0.7,   -0.4,    0.1,    0.7,    0.0,  999.0,    0.9,  999.0,   -0.0,    0.2,   -0.2,   -0.5,  999.0,    0.0,    0.2,  999.0,   -0.0,  999.0,  999.0,  999.0,  999.0,  999.0,   -0.6,  999.0,  999.0,  999.0,  999.0,  999.0,  999.0,  999.0,  999.0,  999.0,  999.0,  999.0,  999.0,  999.0,  999.0,  999.0,  999.0,  999.0,  999.0,  999.0,   -5.6,   -5.5,   -5.5,    0.0,   -5.5,   -5.5,   -2.8,    0.0,  999.0,   -2.8,   -5.6,  999.0,   -5.5,  999.0,   -5.5
2000/11/27 22:50,   -0.6,   -0.1,    0.3,  999.0,   -0.0,    0.1,   -0.4,   -0.3,    0.1,    0.7,   -1.4,   -0.6,    0.0,  999.0,    0.1,   -0.0,  999.0,    0.1,  999.0,  999.0,  999.0,  999.0,  999.0,  999.0,  999.0,    5.6,   -2.2,  999.0,  999.0,  999.0,    5.6,  999.0,  999.0,  999.0,  999.0,  999.0,  999.0,  999.0,    5.5,  999.0,  999.0,  999.0,  999.0,    5.6,  999.0,    5.4,   -5.4,   -5.5,   -5.4,   -1.9,   -5.7,   -5.5,    0.0,   -5.5,   -5.6,  999.0,   -5.5,   -5.6
2000/11/27 23:00,    0.1,    0.3,   -0.0,   -0.1,    0.4,   -0.1,   -0.0,    0.3,    0.1,   -0.2,    0.2,    0.1,    0.3,  999.0,    0.1,   -0.1,    0.1,    0.2,  999.0,  999.0,  999.0,  999.0,   -5.8,  999.0,  999.0,  999.0,  999.0,  999.0,  999.0,  999.0,  999.0,  999.0,  999.0,  999.0,  999.0,  999.0,  999.0,  999.0,  999.0,  999.0,  999.0,  999.0,    5.4,   -0.1,   -5.4,  999.0,  999.0,  999.0,   -5.5,    0.1,   -5.5,   -5.4,   -2.8,   -5.5,   -0.1,  999.0,   -5.5,  999.0
2000/11/27 23:10,   -0.3,   -0.2,   -0.1,    0.0,    0.1,    0.2,    0.1,   -0.1,    0.2,   -0.1,    0.0,    0.1,    0.0,    0.1,   -0.2,   -0.2,  999.0,   -0.2,  999.0,  999.0,  999.0,  999.0,  999.0,  999.0,  999.0,  999.0,  999.0,  999.0,  999.0,  999.0,  999.0,  999.0,  999.0,   -5.5,   -5.4,  999.0,   -5.5,  999.0,   -5.6,   -5.4,   -5.5,   -5.5,   -5.5,   -5.3,   -5.5,   -5.4,   -5.5,  999.0,   -5.6,   -5.6,   -5.3,   -5.5,   -5.6,   -5.5,  999.0,   -5.3,  999.0,   -5.4
2000/11/27 23:20,   -0.7,    0.1,  999.0,   -0.5,   -0.2,    0.0,    0.2,   -0.0,    0.0,    0.8,    0.1,   -0.1,   -0.2,   -0.6,   -0.7,  999.0,   -0.1,  999.0,  999.0,  999.0,  999.0,  999.0,  999.0,    5.5,    5.5,  999.0,    5.7,   -0.0,    5.2,   -5.4,  999.0,    5.4,    5.5,   -0.0,   -5.5,  999.0,  999.0,  999.0,  999.0,  999.0,    0.1,    0.0,   -5.5,  999.0,  999.0,   -5.5,   -5.4,   -5.5,   -5.5,   -5.5,   -5.6,   -5.4,    0.1,  999.0,    5.5,   -5.5,  999.0,  999.0
2000/11/27 23:30,    0.1,   -0.2,   -0.5,   -0.3,   -0.4,   -0.2,   -0.5,  999.0,    1.0,   -0.1,   -0.0,    0.0,    0.1,  999.0,    0.3,    0.1,  999.0,    0.1,    0.1,  999.0,  999.0,  999.0,  999.0,  999.0,   -1.7,  999.0,  999.0,   -5.4,  999.0,  999.0,  999.0,   -5.5,  999.0,   -5.4,   -5.4,   -5.6,   -5.7,  999.0,  999.0,   -5.5,   -5.6,   -5.6,   -5.4,   -5.4,   -5.5,   -5.6,   -5.4,  999.0,   -5.4,   -5.5,  999.0,   -5.5,   -5.5,   -5.4,   -5.4,   -5.5,   -5.5,   -5.4
2000/11/27 23:40,   -0.3,   -0.1,    0.0,   -0.0,   -0.1,   -0.0,    0.5,    0.3,    0.1,   -0.0,   -0.1,   -1.9,   -0.0,  999.0,    0.1,  999.0,  999.0,  999.0,  999.0,  999.0,  999.0,  999.0,  999.0,  999.0,  999.0,  999.0,  999.0,  999.0,  999.0,  999.0,   -5.4,   -5.4,  999.0,  999.0,  999.0,   -5.5,   -5.5,  999.0,   -5.6,   -5.6,   -5.4,   -5.6,   -5.4,   -5.5,   -5.5,   -5.4,   -0.0,   -5.5,    5.5,   -5.3,    0.1,   -5.6,   -0.0,   -3.7,   -2.8,   -5.6,   -5.6,   -5.5
2000/11/27 23:50,  999.0,    0.2,   -0.2,   -0.3,   -0.9,   -0.0,   -0.1,   -0.2,   -0.1,   -0.3,   -0.2,   -0.0,    0.1,  999.0,    0.1,  999.0,  999.0,  999.0,  999.0,  999.0,  999.0,  999.0,  999.0,  999.0,  999.0,  999.0,   -5.4,   -5.5,   -5.5,   -5.5,   -5.5,  999.0,  999.0,   -5.5,  999.0,  999.0,  999.0,   -5.5,   -5.6,   -5.5,   -5.5,   -5.3,   -5.5,   -5.5,   -5.5,   -5.6,   -5.6,   -5.5,  999.0,   -5.5,   -5.6,   -5.5,   -5.4,   -5.4,   -5.6,   -5.5,   -5.5,   -5.5
